<?xml version="1.0" encoding="UTF-8" standalone="no" ?>
<gpx xmlns="http://www.topografix.com/GPX/1/1" xmlns:xsi="http://www.w3.org/2001/XMLSchema-instance" xsi:schemaLocation="http://www.topografix.com/GPX/1/1 http://www.topografix.com/GPX/1/1/gpx.xsd" version="1.1" creator="VisuGPX - https://www.visugpx.com">
  <metadata>
    <name>Honfleur les rhodos</name>
    <desc><![CDATA[Promenade dans les rhododendrons qui fleurissent au printemps]]></desc>
  </metadata>
  <trk>
    <name><![CDATA[192]]></name>
    <trkseg>
      <trkpt lat="49.41092" lon="0.1915">
        <ele>104.8</ele>
        <time>2015-06-09T09:17:24Z</time>
      </trkpt>
      <trkpt lat="49.41098" lon="0.19152">
        <ele>104.4</ele>
        <time>2015-06-09T09:17:24Z</time>
      </trkpt>
      <trkpt lat="49.41103" lon="0.19149">
        <ele>104</ele>
        <time>2015-06-09T09:17:24Z</time>
      </trkpt>
      <trkpt lat="49.41105" lon="0.19145">
        <ele>103.7</ele>
        <time>2015-06-09T09:17:24Z</time>
      </trkpt>
      <trkpt lat="49.41106" lon="0.19143">
        <ele>103.5</ele>
        <time>2015-06-09T09:17:24Z</time>
      </trkpt>
      <trkpt lat="49.41122" lon="0.19122">
        <ele>101.2</ele>
        <time>2015-06-09T09:17:24Z</time>
      </trkpt>
      <trkpt lat="49.41131" lon="0.19117">
        <ele>99.7</ele>
        <time>2015-06-09T09:17:24Z</time>
      </trkpt>
      <trkpt lat="49.4114" lon="0.19116">
        <ele>97.6</ele>
        <time>2015-06-09T09:17:24Z</time>
      </trkpt>
      <trkpt lat="49.4115" lon="0.19117">
        <ele>94.2</ele>
        <time>2015-06-09T09:17:24Z</time>
      </trkpt>
      <trkpt lat="49.41157" lon="0.19129">
        <ele>93</ele>
        <time>2015-06-09T09:17:24Z</time>
      </trkpt>
      <trkpt lat="49.41163" lon="0.1914">
        <ele>92.9</ele>
        <time>2015-06-09T09:17:24Z</time>
      </trkpt>
      <trkpt lat="49.41168" lon="0.19148">
        <ele>92.2</ele>
        <time>2015-06-09T09:17:24Z</time>
      </trkpt>
      <trkpt lat="49.41172" lon="0.19158">
        <ele>91.8</ele>
        <time>2015-06-09T09:17:24Z</time>
      </trkpt>
      <trkpt lat="49.4118" lon="0.19162">
        <ele>89.7</ele>
        <time>2015-06-09T09:17:24Z</time>
      </trkpt>
      <trkpt lat="49.41185" lon="0.19173">
        <ele>90.1</ele>
        <time>2015-06-09T09:17:24Z</time>
      </trkpt>
      <trkpt lat="49.41193" lon="0.19177">
        <ele>88.3</ele>
        <time>2015-06-09T09:17:24Z</time>
      </trkpt>
      <trkpt lat="49.41198" lon="0.19182">
        <ele>87</ele>
        <time>2015-06-09T09:17:24Z</time>
      </trkpt>
      <trkpt lat="49.41203" lon="0.19188">
        <ele>85.9</ele>
        <time>2015-06-09T09:17:24Z</time>
      </trkpt>
      <trkpt lat="49.41205" lon="0.19191">
        <ele>85.5</ele>
        <time>2015-06-09T09:17:24Z</time>
      </trkpt>
      <trkpt lat="49.41208" lon="0.19189">
        <ele>84.3</ele>
        <time>2015-06-09T09:17:24Z</time>
      </trkpt>
      <trkpt lat="49.41212" lon="0.19188">
        <ele>83.1</ele>
        <time>2015-06-09T09:17:24Z</time>
      </trkpt>
      <trkpt lat="49.41214" lon="0.19187">
        <ele>82.3</ele>
        <time>2015-06-09T09:17:24Z</time>
      </trkpt>
      <trkpt lat="49.41216" lon="0.19187">
        <ele>81.5</ele>
        <time>2015-06-09T09:17:24Z</time>
      </trkpt>
      <trkpt lat="49.41218" lon="0.19186">
        <ele>81</ele>
        <time>2015-06-09T09:17:24Z</time>
      </trkpt>
      <trkpt lat="49.4122" lon="0.19195">
        <ele>81.7</ele>
        <time>2015-06-09T09:17:24Z</time>
      </trkpt>
      <trkpt lat="49.41224" lon="0.19202">
        <ele>81.4</ele>
        <time>2015-06-09T09:17:24Z</time>
      </trkpt>
      <trkpt lat="49.41229" lon="0.19203">
        <ele>80</ele>
        <time>2015-06-09T09:17:24Z</time>
      </trkpt>
      <trkpt lat="49.41232" lon="0.19196">
        <ele>77.9</ele>
        <time>2015-06-09T09:17:24Z</time>
      </trkpt>
      <trkpt lat="49.41229" lon="0.19182">
        <ele>76.3</ele>
        <time>2015-06-09T09:17:24Z</time>
      </trkpt>
      <trkpt lat="49.41231" lon="0.19177">
        <ele>74.6</ele>
        <time>2015-06-09T09:17:24Z</time>
      </trkpt>
      <trkpt lat="49.41232" lon="0.19167">
        <ele>72.4</ele>
        <time>2015-06-09T09:17:24Z</time>
      </trkpt>
      <trkpt lat="49.41231" lon="0.19159">
        <ele>71.1</ele>
        <time>2015-06-09T09:17:24Z</time>
      </trkpt>
      <trkpt lat="49.41227" lon="0.19148">
        <ele>70.2</ele>
        <time>2015-06-09T09:17:24Z</time>
      </trkpt>
      <trkpt lat="49.41227" lon="0.19138">
        <ele>68</ele>
        <time>2015-06-09T09:17:24Z</time>
      </trkpt>
      <trkpt lat="49.41222" lon="0.1913">
        <ele>68.4</ele>
        <time>2015-06-09T09:17:24Z</time>
      </trkpt>
      <trkpt lat="49.41209" lon="0.19101">
        <ele>66.2</ele>
        <time>2015-06-09T09:17:24Z</time>
      </trkpt>
      <trkpt lat="49.41206" lon="0.19092">
        <ele>64.8</ele>
        <time>2015-06-09T09:17:24Z</time>
      </trkpt>
      <trkpt lat="49.41203" lon="0.19078">
        <ele>62.6</ele>
        <time>2015-06-09T09:17:24Z</time>
      </trkpt>
      <trkpt lat="49.412" lon="0.1907">
        <ele>62.4</ele>
        <time>2015-06-09T09:17:24Z</time>
      </trkpt>
      <trkpt lat="49.41199" lon="0.1906">
        <ele>61.4</ele>
        <time>2015-06-09T09:17:24Z</time>
      </trkpt>
      <trkpt lat="49.41197" lon="0.19055">
        <ele>61.7</ele>
        <time>2015-06-09T09:17:24Z</time>
      </trkpt>
      <trkpt lat="49.41194" lon="0.19044">
        <ele>61.2</ele>
        <time>2015-06-09T09:17:24Z</time>
      </trkpt>
      <trkpt lat="49.41195" lon="0.19031">
        <ele>58.6</ele>
        <time>2015-06-09T09:17:24Z</time>
      </trkpt>
      <trkpt lat="49.41191" lon="0.19016">
        <ele>56.9</ele>
        <time>2015-06-09T09:17:24Z</time>
      </trkpt>
      <trkpt lat="49.41188" lon="0.19006">
        <ele>55.5</ele>
        <time>2015-06-09T09:17:24Z</time>
      </trkpt>
      <trkpt lat="49.41184" lon="0.18994">
        <ele>53.9</ele>
        <time>2015-06-09T09:17:24Z</time>
      </trkpt>
      <trkpt lat="49.41182" lon="0.18983">
        <ele>52.1</ele>
        <time>2015-06-09T09:17:24Z</time>
      </trkpt>
      <trkpt lat="49.41179" lon="0.18973">
        <ele>51</ele>
        <time>2015-06-09T09:17:24Z</time>
      </trkpt>
      <trkpt lat="49.41176" lon="0.18965">
        <ele>50.6</ele>
        <time>2015-06-09T09:17:24Z</time>
      </trkpt>
      <trkpt lat="49.41177" lon="0.18953">
        <ele>49.1</ele>
        <time>2015-06-09T09:17:24Z</time>
      </trkpt>
      <trkpt lat="49.41177" lon="0.18944">
        <ele>48.1</ele>
        <time>2015-06-09T09:17:24Z</time>
      </trkpt>
      <trkpt lat="49.41179" lon="0.18934">
        <ele>47</ele>
        <time>2015-06-09T09:17:24Z</time>
      </trkpt>
      <trkpt lat="49.41182" lon="0.18927">
        <ele>46</ele>
        <time>2015-06-09T09:17:24Z</time>
      </trkpt>
      <trkpt lat="49.41183" lon="0.18923">
        <ele>45.6</ele>
        <time>2015-06-09T09:17:24Z</time>
      </trkpt>
      <trkpt lat="49.41185" lon="0.18913">
        <ele>44.9</ele>
        <time>2015-06-09T09:17:24Z</time>
      </trkpt>
      <trkpt lat="49.41189" lon="0.18905">
        <ele>44.1</ele>
        <time>2015-06-09T09:17:24Z</time>
      </trkpt>
      <trkpt lat="49.41199" lon="0.18881">
        <ele>42.2</ele>
        <time>2015-06-09T09:17:24Z</time>
      </trkpt>
      <trkpt lat="49.41201" lon="0.18876">
        <ele>41.7</ele>
        <time>2015-06-09T09:17:24Z</time>
      </trkpt>
      <trkpt lat="49.41212" lon="0.18863">
        <ele>40.5</ele>
        <time>2015-06-09T09:17:24Z</time>
      </trkpt>
      <trkpt lat="49.41229" lon="0.18841">
        <ele>37.8</ele>
        <time>2015-06-09T09:17:24Z</time>
      </trkpt>
      <trkpt lat="49.41236" lon="0.18833">
        <ele>36.5</ele>
        <time>2015-06-09T09:17:24Z</time>
      </trkpt>
      <trkpt lat="49.41244" lon="0.18824">
        <ele>35</ele>
        <time>2015-06-09T09:17:24Z</time>
      </trkpt>
      <trkpt lat="49.41251" lon="0.18819">
        <ele>33.8</ele>
        <time>2015-06-09T09:17:24Z</time>
      </trkpt>
      <trkpt lat="49.41266" lon="0.18806">
        <ele>31.3</ele>
        <time>2015-06-09T09:17:24Z</time>
      </trkpt>
      <trkpt lat="49.41271" lon="0.18799">
        <ele>30.4</ele>
        <time>2015-06-09T09:17:24Z</time>
      </trkpt>
      <trkpt lat="49.41278" lon="0.18792">
        <ele>29.5</ele>
        <time>2015-06-09T09:17:24Z</time>
      </trkpt>
      <trkpt lat="49.41282" lon="0.18784">
        <ele>28.9</ele>
        <time>2015-06-09T09:17:24Z</time>
      </trkpt>
      <trkpt lat="49.41288" lon="0.18777">
        <ele>28.2</ele>
        <time>2015-06-09T09:17:24Z</time>
      </trkpt>
      <trkpt lat="49.41295" lon="0.1877">
        <ele>27.5</ele>
        <time>2015-06-09T09:17:24Z</time>
      </trkpt>
      <trkpt lat="49.41302" lon="0.18762">
        <ele>26.7</ele>
        <time>2015-06-09T09:17:24Z</time>
      </trkpt>
      <trkpt lat="49.41309" lon="0.18753">
        <ele>26</ele>
        <time>2015-06-09T09:17:24Z</time>
      </trkpt>
      <trkpt lat="49.41316" lon="0.18746">
        <ele>25.5</ele>
        <time>2015-06-09T09:17:24Z</time>
      </trkpt>
      <trkpt lat="49.41322" lon="0.18738">
        <ele>25</ele>
        <time>2015-06-09T09:17:24Z</time>
      </trkpt>
      <trkpt lat="49.41329" lon="0.1873">
        <ele>24.4</ele>
        <time>2015-06-09T09:17:24Z</time>
      </trkpt>
      <trkpt lat="49.41335" lon="0.18721">
        <ele>23.8</ele>
        <time>2015-06-09T09:17:24Z</time>
      </trkpt>
      <trkpt lat="49.41341" lon="0.18713">
        <ele>23.1</ele>
        <time>2015-06-09T09:17:24Z</time>
      </trkpt>
      <trkpt lat="49.41346" lon="0.18705">
        <ele>22.5</ele>
        <time>2015-06-09T09:17:24Z</time>
      </trkpt>
      <trkpt lat="49.41348" lon="0.18703">
        <ele>22.3</ele>
        <time>2015-06-09T09:17:24Z</time>
      </trkpt>
      <trkpt lat="49.41349" lon="0.18697">
        <ele>21.9</ele>
        <time>2015-06-09T09:17:24Z</time>
      </trkpt>
      <trkpt lat="49.41347" lon="0.18688">
        <ele>21.9</ele>
        <time>2015-06-09T09:17:24Z</time>
      </trkpt>
      <trkpt lat="49.41342" lon="0.1868">
        <ele>22</ele>
        <time>2015-06-09T09:17:24Z</time>
      </trkpt>
      <trkpt lat="49.41338" lon="0.18673">
        <ele>22</ele>
        <time>2015-06-09T09:17:24Z</time>
      </trkpt>
      <trkpt lat="49.41334" lon="0.18665">
        <ele>21.9</ele>
        <time>2015-06-09T09:17:24Z</time>
      </trkpt>
      <trkpt lat="49.41331" lon="0.18659">
        <ele>21.9</ele>
        <time>2015-06-09T09:17:24Z</time>
      </trkpt>
      <trkpt lat="49.41324" lon="0.18647">
        <ele>21.9</ele>
        <time>2015-06-09T09:17:24Z</time>
      </trkpt>
      <trkpt lat="49.41319" lon="0.18639">
        <ele>22</ele>
        <time>2015-06-09T09:17:24Z</time>
      </trkpt>
      <trkpt lat="49.41314" lon="0.18629">
        <ele>22.1</ele>
        <time>2015-06-09T09:17:24Z</time>
      </trkpt>
      <trkpt lat="49.41308" lon="0.18619">
        <ele>22.1</ele>
        <time>2015-06-09T09:17:24Z</time>
      </trkpt>
      <trkpt lat="49.41303" lon="0.1861">
        <ele>22.1</ele>
        <time>2015-06-09T09:17:24Z</time>
      </trkpt>
      <trkpt lat="49.41297" lon="0.18602">
        <ele>22</ele>
        <time>2015-06-09T09:17:24Z</time>
      </trkpt>
      <trkpt lat="49.41291" lon="0.18592">
        <ele>21.8</ele>
        <time>2015-06-09T09:17:24Z</time>
      </trkpt>
      <trkpt lat="49.41293" lon="0.18586">
        <ele>21.5</ele>
        <time>2015-06-09T09:17:24Z</time>
      </trkpt>
      <trkpt lat="49.41297" lon="0.18585">
        <ele>21.4</ele>
        <time>2015-06-09T09:17:24Z</time>
      </trkpt>
      <trkpt lat="49.41301" lon="0.18575">
        <ele>20.8</ele>
        <time>2015-06-09T09:17:24Z</time>
      </trkpt>
      <trkpt lat="49.41305" lon="0.18569">
        <ele>20.5</ele>
        <time>2015-06-09T09:17:24Z</time>
      </trkpt>
      <trkpt lat="49.41313" lon="0.18553">
        <ele>19.6</ele>
        <time>2015-06-09T09:17:24Z</time>
      </trkpt>
      <trkpt lat="49.41317" lon="0.18548">
        <ele>19</ele>
        <time>2015-06-09T09:17:24Z</time>
      </trkpt>
      <trkpt lat="49.4132" lon="0.18549">
        <ele>19</ele>
        <time>2015-06-09T09:17:24Z</time>
      </trkpt>
      <trkpt lat="49.41325" lon="0.18544">
        <ele>18.5</ele>
        <time>2015-06-09T09:17:24Z</time>
      </trkpt>
      <trkpt lat="49.4133" lon="0.18536">
        <ele>17.7</ele>
        <time>2015-06-09T09:17:24Z</time>
      </trkpt>
      <trkpt lat="49.41334" lon="0.18527">
        <ele>17</ele>
        <time>2015-06-09T09:17:24Z</time>
      </trkpt>
      <trkpt lat="49.41339" lon="0.18518">
        <ele>16.8</ele>
        <time>2015-06-09T09:17:24Z</time>
      </trkpt>
      <trkpt lat="49.41344" lon="0.1851">
        <ele>16.6</ele>
        <time>2015-06-09T09:17:24Z</time>
      </trkpt>
      <trkpt lat="49.4135" lon="0.18498">
        <ele>16.3</ele>
        <time>2015-06-09T09:17:24Z</time>
      </trkpt>
      <trkpt lat="49.41353" lon="0.18491">
        <ele>15.8</ele>
        <time>2015-06-09T09:17:24Z</time>
      </trkpt>
      <trkpt lat="49.41356" lon="0.18487">
        <ele>15.6</ele>
        <time>2015-06-09T09:17:24Z</time>
      </trkpt>
      <trkpt lat="49.41358" lon="0.18487">
        <ele>15.6</ele>
        <time>2015-06-09T09:17:24Z</time>
      </trkpt>
      <trkpt lat="49.41361" lon="0.18483">
        <ele>15.4</ele>
        <time>2015-06-09T09:17:24Z</time>
      </trkpt>
      <trkpt lat="49.41363" lon="0.18477">
        <ele>15.1</ele>
        <time>2015-06-09T09:17:24Z</time>
      </trkpt>
      <trkpt lat="49.41363" lon="0.18468">
        <ele>14.7</ele>
        <time>2015-06-09T09:17:24Z</time>
      </trkpt>
      <trkpt lat="49.41363" lon="0.18457">
        <ele>14.4</ele>
        <time>2015-06-09T09:17:24Z</time>
      </trkpt>
      <trkpt lat="49.41362" lon="0.18447">
        <ele>14.1</ele>
        <time>2015-06-09T09:17:24Z</time>
      </trkpt>
      <trkpt lat="49.41364" lon="0.18437">
        <ele>13.3</ele>
        <time>2015-06-09T09:17:24Z</time>
      </trkpt>
      <trkpt lat="49.41367" lon="0.18431">
        <ele>12.8</ele>
        <time>2015-06-09T09:17:24Z</time>
      </trkpt>
      <trkpt lat="49.41368" lon="0.1843">
        <ele>12.7</ele>
        <time>2015-06-09T09:17:24Z</time>
      </trkpt>
      <trkpt lat="49.41372" lon="0.18425">
        <ele>12.2</ele>
        <time>2015-06-09T09:17:24Z</time>
      </trkpt>
      <trkpt lat="49.41379" lon="0.18419">
        <ele>11.5</ele>
        <time>2015-06-09T09:17:24Z</time>
      </trkpt>
      <trkpt lat="49.41389" lon="0.18408">
        <ele>10.7</ele>
        <time>2015-06-09T09:17:24Z</time>
      </trkpt>
      <trkpt lat="49.41393" lon="0.18401">
        <ele>10.4</ele>
        <time>2015-06-09T09:17:24Z</time>
      </trkpt>
      <trkpt lat="49.41399" lon="0.18396">
        <ele>10.2</ele>
        <time>2015-06-09T09:17:24Z</time>
      </trkpt>
      <trkpt lat="49.41405" lon="0.18391">
        <ele>10</ele>
        <time>2015-06-09T09:17:24Z</time>
      </trkpt>
      <trkpt lat="49.41414" lon="0.18392">
        <ele>10</ele>
        <time>2015-06-09T09:17:24Z</time>
      </trkpt>
      <trkpt lat="49.41421" lon="0.18397">
        <ele>9.8</ele>
        <time>2015-06-09T09:17:24Z</time>
      </trkpt>
      <trkpt lat="49.41427" lon="0.18403">
        <ele>9.6</ele>
        <time>2015-06-09T09:17:24Z</time>
      </trkpt>
      <trkpt lat="49.41433" lon="0.18412">
        <ele>9.8</ele>
        <time>2015-06-09T09:17:24Z</time>
      </trkpt>
      <trkpt lat="49.41439" lon="0.18419">
        <ele>10</ele>
        <time>2015-06-09T09:17:24Z</time>
      </trkpt>
      <trkpt lat="49.41446" lon="0.18426">
        <ele>9.9</ele>
        <time>2015-06-09T09:17:24Z</time>
      </trkpt>
      <trkpt lat="49.41453" lon="0.18434">
        <ele>9.6</ele>
        <time>2015-06-09T09:17:24Z</time>
      </trkpt>
      <trkpt lat="49.41458" lon="0.1844">
        <ele>9.4</ele>
        <time>2015-06-09T09:17:24Z</time>
      </trkpt>
      <trkpt lat="49.41464" lon="0.18448">
        <ele>9.4</ele>
        <time>2015-06-09T09:17:24Z</time>
      </trkpt>
      <trkpt lat="49.4147" lon="0.18456">
        <ele>9.5</ele>
        <time>2015-06-09T09:17:24Z</time>
      </trkpt>
      <trkpt lat="49.41476" lon="0.18463">
        <ele>9.5</ele>
        <time>2015-06-09T09:17:24Z</time>
      </trkpt>
      <trkpt lat="49.4148" lon="0.18469">
        <ele>9.6</ele>
        <time>2015-06-09T09:17:24Z</time>
      </trkpt>
      <trkpt lat="49.41485" lon="0.18477">
        <ele>9.7</ele>
        <time>2015-06-09T09:17:24Z</time>
      </trkpt>
      <trkpt lat="49.41491" lon="0.18486">
        <ele>9.8</ele>
        <time>2015-06-09T09:17:24Z</time>
      </trkpt>
      <trkpt lat="49.41497" lon="0.18493">
        <ele>9.8</ele>
        <time>2015-06-09T09:17:24Z</time>
      </trkpt>
      <trkpt lat="49.41503" lon="0.18501">
        <ele>9.8</ele>
        <time>2015-06-09T09:17:24Z</time>
      </trkpt>
      <trkpt lat="49.41509" lon="0.18505">
        <ele>9.4</ele>
        <time>2015-06-09T09:17:24Z</time>
      </trkpt>
      <trkpt lat="49.41515" lon="0.18502">
        <ele>9</ele>
        <time>2015-06-09T09:17:24Z</time>
      </trkpt>
      <trkpt lat="49.41517" lon="0.18499">
        <ele>8.7</ele>
        <time>2015-06-09T09:17:24Z</time>
      </trkpt>
      <trkpt lat="49.41521" lon="0.18491">
        <ele>8.1</ele>
        <time>2015-06-09T09:17:24Z</time>
      </trkpt>
      <trkpt lat="49.41527" lon="0.18485">
        <ele>7.5</ele>
        <time>2015-06-09T09:17:24Z</time>
      </trkpt>
      <trkpt lat="49.41532" lon="0.18477">
        <ele>6.7</ele>
        <time>2015-06-09T09:17:24Z</time>
      </trkpt>
      <trkpt lat="49.41539" lon="0.1847">
        <ele>5.8</ele>
        <time>2015-06-09T09:17:24Z</time>
      </trkpt>
      <trkpt lat="49.41544" lon="0.18465">
        <ele>5.1</ele>
        <time>2015-06-09T09:17:24Z</time>
      </trkpt>
      <trkpt lat="49.41549" lon="0.18458">
        <ele>4.6</ele>
        <time>2015-06-09T09:17:24Z</time>
      </trkpt>
      <trkpt lat="49.41549" lon="0.18456">
        <ele>4.6</ele>
        <time>2015-06-09T09:17:24Z</time>
      </trkpt>
      <trkpt lat="49.41549" lon="0.18447">
        <ele>4.5</ele>
        <time>2015-06-09T09:17:24Z</time>
      </trkpt>
      <trkpt lat="49.41549" lon="0.18437">
        <ele>4.4</ele>
        <time>2015-06-09T09:17:24Z</time>
      </trkpt>
      <trkpt lat="49.4155" lon="0.18426">
        <ele>4.3</ele>
        <time>2015-06-09T09:17:24Z</time>
      </trkpt>
      <trkpt lat="49.41551" lon="0.18414">
        <ele>4.2</ele>
        <time>2015-06-09T09:17:24Z</time>
      </trkpt>
      <trkpt lat="49.4155" lon="0.18402">
        <ele>4.2</ele>
        <time>2015-06-09T09:17:24Z</time>
      </trkpt>
      <trkpt lat="49.41548" lon="0.1839">
        <ele>4.3</ele>
        <time>2015-06-09T09:17:24Z</time>
      </trkpt>
      <trkpt lat="49.41547" lon="0.18377">
        <ele>3.9</ele>
        <time>2015-06-09T09:17:24Z</time>
      </trkpt>
      <trkpt lat="49.41544" lon="0.18365">
        <ele>3.6</ele>
        <time>2015-06-09T09:17:24Z</time>
      </trkpt>
      <trkpt lat="49.41541" lon="0.18354">
        <ele>3.5</ele>
        <time>2015-06-09T09:17:24Z</time>
      </trkpt>
      <trkpt lat="49.41537" lon="0.18336">
        <ele>3.7</ele>
        <time>2015-06-09T09:17:24Z</time>
      </trkpt>
      <trkpt lat="49.41534" lon="0.18325">
        <ele>3.7</ele>
        <time>2015-06-09T09:17:24Z</time>
      </trkpt>
      <trkpt lat="49.41532" lon="0.18312">
        <ele>3.8</ele>
        <time>2015-06-09T09:17:24Z</time>
      </trkpt>
      <trkpt lat="49.4153" lon="0.183">
        <ele>3.9</ele>
        <time>2015-06-09T09:17:24Z</time>
      </trkpt>
      <trkpt lat="49.41526" lon="0.18289">
        <ele>4</ele>
        <time>2015-06-09T09:17:24Z</time>
      </trkpt>
      <trkpt lat="49.41522" lon="0.18279">
        <ele>4</ele>
        <time>2015-06-09T09:17:24Z</time>
      </trkpt>
      <trkpt lat="49.41512" lon="0.1826">
        <ele>3.7</ele>
        <time>2015-06-09T09:17:24Z</time>
      </trkpt>
      <trkpt lat="49.41509" lon="0.18249">
        <ele>3.7</ele>
        <time>2015-06-09T09:17:24Z</time>
      </trkpt>
      <trkpt lat="49.41506" lon="0.18238">
        <ele>3.7</ele>
        <time>2015-06-09T09:17:24Z</time>
      </trkpt>
      <trkpt lat="49.41504" lon="0.18226">
        <ele>3.7</ele>
        <time>2015-06-09T09:17:24Z</time>
      </trkpt>
      <trkpt lat="49.41502" lon="0.18214">
        <ele>3.6</ele>
        <time>2015-06-09T09:17:24Z</time>
      </trkpt>
      <trkpt lat="49.41499" lon="0.18203">
        <ele>3.4</ele>
        <time>2015-06-09T09:17:24Z</time>
      </trkpt>
      <trkpt lat="49.41495" lon="0.18192">
        <ele>3.2</ele>
        <time>2015-06-09T09:17:24Z</time>
      </trkpt>
      <trkpt lat="49.41491" lon="0.18181">
        <ele>3.1</ele>
        <time>2015-06-09T09:17:24Z</time>
      </trkpt>
      <trkpt lat="49.41487" lon="0.18172">
        <ele>3.1</ele>
        <time>2015-06-09T09:17:24Z</time>
      </trkpt>
      <trkpt lat="49.41484" lon="0.18161">
        <ele>3.2</ele>
        <time>2015-06-09T09:17:24Z</time>
      </trkpt>
      <trkpt lat="49.4148" lon="0.18151">
        <ele>3.4</ele>
        <time>2015-06-09T09:17:24Z</time>
      </trkpt>
      <trkpt lat="49.41477" lon="0.18141">
        <ele>3.7</ele>
        <time>2015-06-09T09:17:24Z</time>
      </trkpt>
      <trkpt lat="49.41473" lon="0.1813">
        <ele>3.6</ele>
        <time>2015-06-09T09:17:24Z</time>
      </trkpt>
      <trkpt lat="49.41469" lon="0.18119">
        <ele>3.5</ele>
        <time>2015-06-09T09:17:24Z</time>
      </trkpt>
      <trkpt lat="49.41465" lon="0.18109">
        <ele>3.5</ele>
        <time>2015-06-09T09:17:24Z</time>
      </trkpt>
      <trkpt lat="49.41462" lon="0.18098">
        <ele>3.6</ele>
        <time>2015-06-09T09:17:24Z</time>
      </trkpt>
      <trkpt lat="49.41458" lon="0.18087">
        <ele>3.6</ele>
        <time>2015-06-09T09:17:24Z</time>
      </trkpt>
      <trkpt lat="49.41454" lon="0.18078">
        <ele>3.5</ele>
        <time>2015-06-09T09:17:24Z</time>
      </trkpt>
      <trkpt lat="49.4145" lon="0.18067">
        <ele>3.3</ele>
        <time>2015-06-09T09:17:24Z</time>
      </trkpt>
      <trkpt lat="49.41446" lon="0.18057">
        <ele>3</ele>
        <time>2015-06-09T09:17:24Z</time>
      </trkpt>
      <trkpt lat="49.41441" lon="0.18046">
        <ele>3.2</ele>
        <time>2015-06-09T09:17:24Z</time>
      </trkpt>
      <trkpt lat="49.41437" lon="0.18036">
        <ele>3.3</ele>
        <time>2015-06-09T09:17:24Z</time>
      </trkpt>
      <trkpt lat="49.41433" lon="0.18027">
        <ele>3.4</ele>
        <time>2015-06-09T09:17:24Z</time>
      </trkpt>
      <trkpt lat="49.41432" lon="0.18024">
        <ele>3.4</ele>
        <time>2015-06-09T09:17:24Z</time>
      </trkpt>
      <trkpt lat="49.41428" lon="0.18014">
        <ele>3.3</ele>
        <time>2015-06-09T09:17:24Z</time>
      </trkpt>
      <trkpt lat="49.41424" lon="0.18005">
        <ele>3.1</ele>
        <time>2015-06-09T09:17:24Z</time>
      </trkpt>
      <trkpt lat="49.4142" lon="0.17994">
        <ele>3</ele>
        <time>2015-06-09T09:17:24Z</time>
      </trkpt>
      <trkpt lat="49.41416" lon="0.17984">
        <ele>3</ele>
        <time>2015-06-09T09:17:24Z</time>
      </trkpt>
      <trkpt lat="49.41412" lon="0.17974">
        <ele>3.3</ele>
        <time>2015-06-09T09:17:24Z</time>
      </trkpt>
      <trkpt lat="49.4141" lon="0.17964">
        <ele>3.4</ele>
        <time>2015-06-09T09:17:24Z</time>
      </trkpt>
      <trkpt lat="49.41406" lon="0.17955">
        <ele>3.5</ele>
        <time>2015-06-09T09:17:24Z</time>
      </trkpt>
      <trkpt lat="49.41402" lon="0.17946">
        <ele>3.6</ele>
        <time>2015-06-09T09:17:24Z</time>
      </trkpt>
      <trkpt lat="49.41397" lon="0.17936">
        <ele>3.5</ele>
        <time>2015-06-09T09:17:24Z</time>
      </trkpt>
      <trkpt lat="49.41393" lon="0.17927">
        <ele>3.3</ele>
        <time>2015-06-09T09:17:24Z</time>
      </trkpt>
      <trkpt lat="49.41389" lon="0.17917">
        <ele>3</ele>
        <time>2015-06-09T09:17:24Z</time>
      </trkpt>
      <trkpt lat="49.41384" lon="0.17907">
        <ele>3.3</ele>
        <time>2015-06-09T09:17:24Z</time>
      </trkpt>
      <trkpt lat="49.4138" lon="0.17898">
        <ele>3.6</ele>
        <time>2015-06-09T09:17:24Z</time>
      </trkpt>
      <trkpt lat="49.41376" lon="0.17888">
        <ele>3.9</ele>
        <time>2015-06-09T09:17:24Z</time>
      </trkpt>
      <trkpt lat="49.41372" lon="0.17877">
        <ele>3.8</ele>
        <time>2015-06-09T09:17:24Z</time>
      </trkpt>
      <trkpt lat="49.41368" lon="0.17868">
        <ele>3.8</ele>
        <time>2015-06-09T09:17:24Z</time>
      </trkpt>
      <trkpt lat="49.41363" lon="0.17857">
        <ele>3.7</ele>
        <time>2015-06-09T09:17:24Z</time>
      </trkpt>
      <trkpt lat="49.4136" lon="0.17846">
        <ele>3.6</ele>
        <time>2015-06-09T09:17:24Z</time>
      </trkpt>
      <trkpt lat="49.41355" lon="0.17837">
        <ele>3.6</ele>
        <time>2015-06-09T09:17:24Z</time>
      </trkpt>
      <trkpt lat="49.41351" lon="0.17826">
        <ele>3.7</ele>
        <time>2015-06-09T09:17:24Z</time>
      </trkpt>
      <trkpt lat="49.41348" lon="0.17816">
        <ele>4</ele>
        <time>2015-06-09T09:17:24Z</time>
      </trkpt>
      <trkpt lat="49.41343" lon="0.17805">
        <ele>4.3</ele>
        <time>2015-06-09T09:17:24Z</time>
      </trkpt>
      <trkpt lat="49.41339" lon="0.17795">
        <ele>4</ele>
        <time>2015-06-09T09:17:24Z</time>
      </trkpt>
      <trkpt lat="49.41336" lon="0.17784">
        <ele>3.4</ele>
        <time>2015-06-09T09:17:24Z</time>
      </trkpt>
      <trkpt lat="49.41332" lon="0.17774">
        <ele>3.1</ele>
        <time>2015-06-09T09:17:24Z</time>
      </trkpt>
      <trkpt lat="49.41329" lon="0.17762">
        <ele>3.5</ele>
        <time>2015-06-09T09:17:24Z</time>
      </trkpt>
      <trkpt lat="49.41326" lon="0.17751">
        <ele>3.7</ele>
        <time>2015-06-09T09:17:24Z</time>
      </trkpt>
      <trkpt lat="49.41325" lon="0.1774">
        <ele>3.7</ele>
        <time>2015-06-09T09:17:24Z</time>
      </trkpt>
      <trkpt lat="49.41324" lon="0.17728">
        <ele>3.5</ele>
        <time>2015-06-09T09:17:24Z</time>
      </trkpt>
      <trkpt lat="49.41321" lon="0.17717">
        <ele>3.4</ele>
        <time>2015-06-09T09:17:24Z</time>
      </trkpt>
      <trkpt lat="49.41317" lon="0.17706">
        <ele>3.2</ele>
        <time>2015-06-09T09:17:24Z</time>
      </trkpt>
      <trkpt lat="49.41314" lon="0.17695">
        <ele>3</ele>
        <time>2015-06-09T09:17:24Z</time>
      </trkpt>
      <trkpt lat="49.41311" lon="0.17684">
        <ele>2.9</ele>
        <time>2015-06-09T09:17:24Z</time>
      </trkpt>
      <trkpt lat="49.41307" lon="0.17674">
        <ele>3</ele>
        <time>2015-06-09T09:17:24Z</time>
      </trkpt>
      <trkpt lat="49.41303" lon="0.17664">
        <ele>3.2</ele>
        <time>2015-06-09T09:17:24Z</time>
      </trkpt>
      <trkpt lat="49.413" lon="0.17654">
        <ele>3.3</ele>
        <time>2015-06-09T09:17:24Z</time>
      </trkpt>
      <trkpt lat="49.41296" lon="0.17643">
        <ele>3.4</ele>
        <time>2015-06-09T09:17:24Z</time>
      </trkpt>
      <trkpt lat="49.41292" lon="0.17634">
        <ele>3.5</ele>
        <time>2015-06-09T09:17:24Z</time>
      </trkpt>
      <trkpt lat="49.41289" lon="0.17623">
        <ele>3.6</ele>
        <time>2015-06-09T09:17:24Z</time>
      </trkpt>
      <trkpt lat="49.41285" lon="0.17612">
        <ele>3.7</ele>
        <time>2015-06-09T09:17:24Z</time>
      </trkpt>
      <trkpt lat="49.41282" lon="0.17601">
        <ele>3.5</ele>
        <time>2015-06-09T09:17:24Z</time>
      </trkpt>
      <trkpt lat="49.41278" lon="0.17592">
        <ele>3.3</ele>
        <time>2015-06-09T09:17:24Z</time>
      </trkpt>
      <trkpt lat="49.41274" lon="0.17581">
        <ele>3.4</ele>
        <time>2015-06-09T09:17:24Z</time>
      </trkpt>
      <trkpt lat="49.4127" lon="0.17571">
        <ele>3.7</ele>
        <time>2015-06-09T09:17:24Z</time>
      </trkpt>
      <trkpt lat="49.41266" lon="0.17561">
        <ele>3.9</ele>
        <time>2015-06-09T09:17:24Z</time>
      </trkpt>
      <trkpt lat="49.41263" lon="0.1755">
        <ele>4</ele>
        <time>2015-06-09T09:17:24Z</time>
      </trkpt>
      <trkpt lat="49.4126" lon="0.1754">
        <ele>3.9</ele>
        <time>2015-06-09T09:17:24Z</time>
      </trkpt>
      <trkpt lat="49.41257" lon="0.1753">
        <ele>3.8</ele>
        <time>2015-06-09T09:17:24Z</time>
      </trkpt>
      <trkpt lat="49.41254" lon="0.17521">
        <ele>3.6</ele>
        <time>2015-06-09T09:17:24Z</time>
      </trkpt>
      <trkpt lat="49.41251" lon="0.17511">
        <ele>3.4</ele>
        <time>2015-06-09T09:17:24Z</time>
      </trkpt>
      <trkpt lat="49.41249" lon="0.17501">
        <ele>3.2</ele>
        <time>2015-06-09T09:17:24Z</time>
      </trkpt>
      <trkpt lat="49.41246" lon="0.1749">
        <ele>3.4</ele>
        <time>2015-06-09T09:17:24Z</time>
      </trkpt>
      <trkpt lat="49.41244" lon="0.1748">
        <ele>3.5</ele>
        <time>2015-06-09T09:17:24Z</time>
      </trkpt>
      <trkpt lat="49.41241" lon="0.17469">
        <ele>3.6</ele>
        <time>2015-06-09T09:17:24Z</time>
      </trkpt>
      <trkpt lat="49.41238" lon="0.17458">
        <ele>3.9</ele>
        <time>2015-06-09T09:17:24Z</time>
      </trkpt>
      <trkpt lat="49.41235" lon="0.17447">
        <ele>4.1</ele>
        <time>2015-06-09T09:17:24Z</time>
      </trkpt>
      <trkpt lat="49.41232" lon="0.17436">
        <ele>4.1</ele>
        <time>2015-06-09T09:17:24Z</time>
      </trkpt>
      <trkpt lat="49.41229" lon="0.17426">
        <ele>4</ele>
        <time>2015-06-09T09:17:24Z</time>
      </trkpt>
      <trkpt lat="49.41226" lon="0.17415">
        <ele>3.8</ele>
        <time>2015-06-09T09:17:24Z</time>
      </trkpt>
      <trkpt lat="49.41224" lon="0.17404">
        <ele>3.5</ele>
        <time>2015-06-09T09:17:24Z</time>
      </trkpt>
      <trkpt lat="49.41221" lon="0.17394">
        <ele>3.2</ele>
        <time>2015-06-09T09:17:24Z</time>
      </trkpt>
      <trkpt lat="49.41218" lon="0.17385">
        <ele>3.3</ele>
        <time>2015-06-09T09:17:24Z</time>
      </trkpt>
      <trkpt lat="49.41215" lon="0.17377">
        <ele>3.5</ele>
        <time>2015-06-09T09:17:24Z</time>
      </trkpt>
      <trkpt lat="49.41214" lon="0.17369">
        <ele>3.6</ele>
        <time>2015-06-09T09:17:24Z</time>
      </trkpt>
      <trkpt lat="49.41212" lon="0.17361">
        <ele>3.8</ele>
        <time>2015-06-09T09:17:24Z</time>
      </trkpt>
      <trkpt lat="49.4121" lon="0.17352">
        <ele>4.1</ele>
        <time>2015-06-09T09:17:24Z</time>
      </trkpt>
      <trkpt lat="49.41208" lon="0.17344">
        <ele>4.3</ele>
        <time>2015-06-09T09:17:24Z</time>
      </trkpt>
      <trkpt lat="49.41208" lon="0.17335">
        <ele>4.5</ele>
        <time>2015-06-09T09:17:24Z</time>
      </trkpt>
      <trkpt lat="49.41209" lon="0.17324">
        <ele>4.3</ele>
        <time>2015-06-09T09:17:24Z</time>
      </trkpt>
      <trkpt lat="49.41209" lon="0.17312">
        <ele>4.1</ele>
        <time>2015-06-09T09:17:24Z</time>
      </trkpt>
      <trkpt lat="49.41206" lon="0.17301">
        <ele>4.1</ele>
        <time>2015-06-09T09:17:24Z</time>
      </trkpt>
      <trkpt lat="49.41204" lon="0.1729">
        <ele>4</ele>
        <time>2015-06-09T09:17:24Z</time>
      </trkpt>
      <trkpt lat="49.41201" lon="0.17279">
        <ele>3.8</ele>
        <time>2015-06-09T09:17:24Z</time>
      </trkpt>
      <trkpt lat="49.41199" lon="0.17268">
        <ele>3.8</ele>
        <time>2015-06-09T09:17:24Z</time>
      </trkpt>
      <trkpt lat="49.41197" lon="0.17257">
        <ele>3.9</ele>
        <time>2015-06-09T09:17:24Z</time>
      </trkpt>
      <trkpt lat="49.41195" lon="0.17251">
        <ele>4</ele>
        <time>2015-06-09T09:17:24Z</time>
      </trkpt>
      <trkpt lat="49.41193" lon="0.17241">
        <ele>3.7</ele>
        <time>2015-06-09T09:17:24Z</time>
      </trkpt>
      <trkpt lat="49.41192" lon="0.17229">
        <ele>3.4</ele>
        <time>2015-06-09T09:17:24Z</time>
      </trkpt>
      <trkpt lat="49.41191" lon="0.17219">
        <ele>3.2</ele>
        <time>2015-06-09T09:17:24Z</time>
      </trkpt>
      <trkpt lat="49.41186" lon="0.17219">
        <ele>3.6</ele>
        <time>2015-06-09T09:17:24Z</time>
      </trkpt>
      <trkpt lat="49.41181" lon="0.17222">
        <ele>4</ele>
        <time>2015-06-09T09:17:24Z</time>
      </trkpt>
      <trkpt lat="49.41175" lon="0.17224">
        <ele>4.4</ele>
        <time>2015-06-09T09:17:24Z</time>
      </trkpt>
      <trkpt lat="49.41173" lon="0.17226">
        <ele>4.6</ele>
        <time>2015-06-09T09:17:24Z</time>
      </trkpt>
      <trkpt lat="49.41173" lon="0.17226">
        <ele>4.6</ele>
        <time>2015-06-09T09:17:24Z</time>
      </trkpt>
      <trkpt lat="49.41173" lon="0.17226">
        <ele>4.6</ele>
        <time>2015-06-09T09:17:24Z</time>
      </trkpt>
      <trkpt lat="49.41173" lon="0.17226">
        <ele>4.6</ele>
        <time>2015-06-09T09:17:24Z</time>
      </trkpt>
      <trkpt lat="49.41173" lon="0.17224">
        <ele>4.6</ele>
        <time>2015-06-09T09:17:24Z</time>
      </trkpt>
      <trkpt lat="49.41171" lon="0.17216">
        <ele>4.7</ele>
        <time>2015-06-09T09:17:24Z</time>
      </trkpt>
      <trkpt lat="49.4117" lon="0.17207">
        <ele>4.8</ele>
        <time>2015-06-09T09:17:24Z</time>
      </trkpt>
      <trkpt lat="49.41172" lon="0.17197">
        <ele>4.6</ele>
        <time>2015-06-09T09:17:24Z</time>
      </trkpt>
      <trkpt lat="49.41173" lon="0.17189">
        <ele>4.5</ele>
        <time>2015-06-09T09:17:24Z</time>
      </trkpt>
      <trkpt lat="49.41173" lon="0.17185">
        <ele>4.6</ele>
        <time>2015-06-09T09:17:24Z</time>
      </trkpt>
      <trkpt lat="49.41173" lon="0.17182">
        <ele>4.6</ele>
        <time>2015-06-09T09:17:24Z</time>
      </trkpt>
      <trkpt lat="49.41172" lon="0.17171">
        <ele>4.6</ele>
        <time>2015-06-09T09:17:24Z</time>
      </trkpt>
      <trkpt lat="49.41171" lon="0.1716">
        <ele>4.5</ele>
        <time>2015-06-09T09:17:24Z</time>
      </trkpt>
      <trkpt lat="49.41169" lon="0.17149">
        <ele>4.3</ele>
        <time>2015-06-09T09:17:24Z</time>
      </trkpt>
      <trkpt lat="49.41168" lon="0.17138">
        <ele>4</ele>
        <time>2015-06-09T09:17:24Z</time>
      </trkpt>
      <trkpt lat="49.41167" lon="0.17128">
        <ele>4</ele>
        <time>2015-06-09T09:17:24Z</time>
      </trkpt>
      <trkpt lat="49.41166" lon="0.17117">
        <ele>4</ele>
        <time>2015-06-09T09:17:24Z</time>
      </trkpt>
      <trkpt lat="49.41165" lon="0.17107">
        <ele>4</ele>
        <time>2015-06-09T09:17:24Z</time>
      </trkpt>
      <trkpt lat="49.41164" lon="0.17097">
        <ele>4</ele>
        <time>2015-06-09T09:17:24Z</time>
      </trkpt>
      <trkpt lat="49.41163" lon="0.17088">
        <ele>4.1</ele>
        <time>2015-06-09T09:17:24Z</time>
      </trkpt>
      <trkpt lat="49.41163" lon="0.17078">
        <ele>4.1</ele>
        <time>2015-06-09T09:17:24Z</time>
      </trkpt>
      <trkpt lat="49.41163" lon="0.17068">
        <ele>4.1</ele>
        <time>2015-06-09T09:17:24Z</time>
      </trkpt>
      <trkpt lat="49.41163" lon="0.17058">
        <ele>4.1</ele>
        <time>2015-06-09T09:17:24Z</time>
      </trkpt>
      <trkpt lat="49.41163" lon="0.17047">
        <ele>3.8</ele>
        <time>2015-06-09T09:17:24Z</time>
      </trkpt>
      <trkpt lat="49.41162" lon="0.17036">
        <ele>3.6</ele>
        <time>2015-06-09T09:17:24Z</time>
      </trkpt>
      <trkpt lat="49.4116" lon="0.17024">
        <ele>3.5</ele>
        <time>2015-06-09T09:17:24Z</time>
      </trkpt>
      <trkpt lat="49.41158" lon="0.17013">
        <ele>3.5</ele>
        <time>2015-06-09T09:17:24Z</time>
      </trkpt>
      <trkpt lat="49.41155" lon="0.17002">
        <ele>3.5</ele>
        <time>2015-06-09T09:17:24Z</time>
      </trkpt>
      <trkpt lat="49.41153" lon="0.16991">
        <ele>3.5</ele>
        <time>2015-06-09T09:17:24Z</time>
      </trkpt>
      <trkpt lat="49.41152" lon="0.1698">
        <ele>3.5</ele>
        <time>2015-06-09T09:17:24Z</time>
      </trkpt>
      <trkpt lat="49.41151" lon="0.16968">
        <ele>3.6</ele>
        <time>2015-06-09T09:17:24Z</time>
      </trkpt>
      <trkpt lat="49.4115" lon="0.16956">
        <ele>3.6</ele>
        <time>2015-06-09T09:17:24Z</time>
      </trkpt>
      <trkpt lat="49.41149" lon="0.16945">
        <ele>3.6</ele>
        <time>2015-06-09T09:17:24Z</time>
      </trkpt>
      <trkpt lat="49.41156" lon="0.16929">
        <ele>3.6</ele>
        <time>2015-06-09T09:17:24Z</time>
      </trkpt>
      <trkpt lat="49.41156" lon="0.16922">
        <ele>3.7</ele>
        <time>2015-06-09T09:17:24Z</time>
      </trkpt>
      <trkpt lat="49.41154" lon="0.16913">
        <ele>3.8</ele>
        <time>2015-06-09T09:17:24Z</time>
      </trkpt>
      <trkpt lat="49.41153" lon="0.16904">
        <ele>3.7</ele>
        <time>2015-06-09T09:17:24Z</time>
      </trkpt>
      <trkpt lat="49.41152" lon="0.16898">
        <ele>3.7</ele>
        <time>2015-06-09T09:17:24Z</time>
      </trkpt>
      <trkpt lat="49.41148" lon="0.16891">
        <ele>3.7</ele>
        <time>2015-06-09T09:17:24Z</time>
      </trkpt>
      <trkpt lat="49.41146" lon="0.16879">
        <ele>3.5</ele>
        <time>2015-06-09T09:17:24Z</time>
      </trkpt>
      <trkpt lat="49.41144" lon="0.16868">
        <ele>3.2</ele>
        <time>2015-06-09T09:17:24Z</time>
      </trkpt>
      <trkpt lat="49.41141" lon="0.16856">
        <ele>3</ele>
        <time>2015-06-09T09:17:24Z</time>
      </trkpt>
      <trkpt lat="49.41138" lon="0.16845">
        <ele>3.1</ele>
        <time>2015-06-09T09:17:24Z</time>
      </trkpt>
      <trkpt lat="49.41136" lon="0.16834">
        <ele>3.2</ele>
        <time>2015-06-09T09:17:24Z</time>
      </trkpt>
      <trkpt lat="49.41133" lon="0.16822">
        <ele>3.4</ele>
        <time>2015-06-09T09:17:24Z</time>
      </trkpt>
      <trkpt lat="49.4113" lon="0.16811">
        <ele>3.7</ele>
        <time>2015-06-09T09:17:24Z</time>
      </trkpt>
      <trkpt lat="49.41128" lon="0.168">
        <ele>3.7</ele>
        <time>2015-06-09T09:17:24Z</time>
      </trkpt>
      <trkpt lat="49.41126" lon="0.16789">
        <ele>3.7</ele>
        <time>2015-06-09T09:17:24Z</time>
      </trkpt>
      <trkpt lat="49.41123" lon="0.16777">
        <ele>3.6</ele>
        <time>2015-06-09T09:17:24Z</time>
      </trkpt>
      <trkpt lat="49.41121" lon="0.16766">
        <ele>3.6</ele>
        <time>2015-06-09T09:17:24Z</time>
      </trkpt>
      <trkpt lat="49.41119" lon="0.16754">
        <ele>3.7</ele>
        <time>2015-06-09T09:17:24Z</time>
      </trkpt>
      <trkpt lat="49.41117" lon="0.16742">
        <ele>3.8</ele>
        <time>2015-06-09T09:17:24Z</time>
      </trkpt>
      <trkpt lat="49.41114" lon="0.16731">
        <ele>3.9</ele>
        <time>2015-06-09T09:17:24Z</time>
      </trkpt>
      <trkpt lat="49.41112" lon="0.1672">
        <ele>3.9</ele>
        <time>2015-06-09T09:17:24Z</time>
      </trkpt>
      <trkpt lat="49.41108" lon="0.1671">
        <ele>3.6</ele>
        <time>2015-06-09T09:17:24Z</time>
      </trkpt>
      <trkpt lat="49.41104" lon="0.16704">
        <ele>3.5</ele>
        <time>2015-06-09T09:17:24Z</time>
      </trkpt>
      <trkpt lat="49.41101" lon="0.16694">
        <ele>3.4</ele>
        <time>2015-06-09T09:17:24Z</time>
      </trkpt>
      <trkpt lat="49.41099" lon="0.16683">
        <ele>3.6</ele>
        <time>2015-06-09T09:17:24Z</time>
      </trkpt>
      <trkpt lat="49.41097" lon="0.16673">
        <ele>3.9</ele>
        <time>2015-06-09T09:17:24Z</time>
      </trkpt>
      <trkpt lat="49.41095" lon="0.16662">
        <ele>4.2</ele>
        <time>2015-06-09T09:17:24Z</time>
      </trkpt>
      <trkpt lat="49.41093" lon="0.16651">
        <ele>4.3</ele>
        <time>2015-06-09T09:17:24Z</time>
      </trkpt>
      <trkpt lat="49.41093" lon="0.1664">
        <ele>4.3</ele>
        <time>2015-06-09T09:17:24Z</time>
      </trkpt>
      <trkpt lat="49.41092" lon="0.16628">
        <ele>4.4</ele>
        <time>2015-06-09T09:17:24Z</time>
      </trkpt>
      <trkpt lat="49.41091" lon="0.16617">
        <ele>4.5</ele>
        <time>2015-06-09T09:17:24Z</time>
      </trkpt>
      <trkpt lat="49.4109" lon="0.16606">
        <ele>4.4</ele>
        <time>2015-06-09T09:17:24Z</time>
      </trkpt>
      <trkpt lat="49.41088" lon="0.16597">
        <ele>4.3</ele>
        <time>2015-06-09T09:17:24Z</time>
      </trkpt>
      <trkpt lat="49.41084" lon="0.16589">
        <ele>4.2</ele>
        <time>2015-06-09T09:17:24Z</time>
      </trkpt>
      <trkpt lat="49.41079" lon="0.16588">
        <ele>4.2</ele>
        <time>2015-06-09T09:17:24Z</time>
      </trkpt>
      <trkpt lat="49.41074" lon="0.16592">
        <ele>4.3</ele>
        <time>2015-06-09T09:17:24Z</time>
      </trkpt>
      <trkpt lat="49.41068" lon="0.16597">
        <ele>4.5</ele>
        <time>2015-06-09T09:17:24Z</time>
      </trkpt>
      <trkpt lat="49.41061" lon="0.16604">
        <ele>4.7</ele>
        <time>2015-06-09T09:17:24Z</time>
      </trkpt>
      <trkpt lat="49.41055" lon="0.1661">
        <ele>4.9</ele>
        <time>2015-06-09T09:17:24Z</time>
      </trkpt>
      <trkpt lat="49.41049" lon="0.16616">
        <ele>4.7</ele>
        <time>2015-06-09T09:17:24Z</time>
      </trkpt>
      <trkpt lat="49.41042" lon="0.16623">
        <ele>4.5</ele>
        <time>2015-06-09T09:17:24Z</time>
      </trkpt>
      <trkpt lat="49.41035" lon="0.16629">
        <ele>4.6</ele>
        <time>2015-06-09T09:17:24Z</time>
      </trkpt>
      <trkpt lat="49.41028" lon="0.16635">
        <ele>4.9</ele>
        <time>2015-06-09T09:17:24Z</time>
      </trkpt>
      <trkpt lat="49.41024" lon="0.16639">
        <ele>4.9</ele>
        <time>2015-06-09T09:17:24Z</time>
      </trkpt>
      <trkpt lat="49.41022" lon="0.1664">
        <ele>4.8</ele>
        <time>2015-06-09T09:17:24Z</time>
      </trkpt>
      <trkpt lat="49.41017" lon="0.16645">
        <ele>4.6</ele>
        <time>2015-06-09T09:17:24Z</time>
      </trkpt>
      <trkpt lat="49.4101" lon="0.16652">
        <ele>4.5</ele>
        <time>2015-06-09T09:17:24Z</time>
      </trkpt>
      <trkpt lat="49.41004" lon="0.16659">
        <ele>4.7</ele>
        <time>2015-06-09T09:17:24Z</time>
      </trkpt>
      <trkpt lat="49.40997" lon="0.16666">
        <ele>4.9</ele>
        <time>2015-06-09T09:17:24Z</time>
      </trkpt>
      <trkpt lat="49.4099" lon="0.16673">
        <ele>4.6</ele>
        <time>2015-06-09T09:17:24Z</time>
      </trkpt>
      <trkpt lat="49.40982" lon="0.1668">
        <ele>4.5</ele>
        <time>2015-06-09T09:17:24Z</time>
      </trkpt>
      <trkpt lat="49.40976" lon="0.16687">
        <ele>4.7</ele>
        <time>2015-06-09T09:17:24Z</time>
      </trkpt>
      <trkpt lat="49.40969" lon="0.16693">
        <ele>4.8</ele>
        <time>2015-06-09T09:17:24Z</time>
      </trkpt>
      <trkpt lat="49.40962" lon="0.167">
        <ele>4.6</ele>
        <time>2015-06-09T09:17:24Z</time>
      </trkpt>
      <trkpt lat="49.40955" lon="0.16706">
        <ele>4.5</ele>
        <time>2015-06-09T09:17:24Z</time>
      </trkpt>
      <trkpt lat="49.40948" lon="0.16713">
        <ele>4.6</ele>
        <time>2015-06-09T09:17:24Z</time>
      </trkpt>
      <trkpt lat="49.40941" lon="0.16719">
        <ele>4.8</ele>
        <time>2015-06-09T09:17:24Z</time>
      </trkpt>
      <trkpt lat="49.40934" lon="0.16725">
        <ele>4.6</ele>
        <time>2015-06-09T09:17:24Z</time>
      </trkpt>
      <trkpt lat="49.40927" lon="0.16733">
        <ele>4.5</ele>
        <time>2015-06-09T09:17:24Z</time>
      </trkpt>
      <trkpt lat="49.40919" lon="0.16739">
        <ele>4.6</ele>
        <time>2015-06-09T09:17:24Z</time>
      </trkpt>
      <trkpt lat="49.40912" lon="0.16746">
        <ele>4.7</ele>
        <time>2015-06-09T09:17:24Z</time>
      </trkpt>
      <trkpt lat="49.40905" lon="0.16753">
        <ele>4.6</ele>
        <time>2015-06-09T09:17:24Z</time>
      </trkpt>
      <trkpt lat="49.40897" lon="0.16759">
        <ele>4.4</ele>
        <time>2015-06-09T09:17:24Z</time>
      </trkpt>
      <trkpt lat="49.40891" lon="0.16766">
        <ele>4.6</ele>
        <time>2015-06-09T09:17:24Z</time>
      </trkpt>
      <trkpt lat="49.40884" lon="0.16775">
        <ele>4.7</ele>
        <time>2015-06-09T09:17:24Z</time>
      </trkpt>
      <trkpt lat="49.40878" lon="0.16783">
        <ele>4.6</ele>
        <time>2015-06-09T09:17:24Z</time>
      </trkpt>
      <trkpt lat="49.40873" lon="0.16792">
        <ele>4.5</ele>
        <time>2015-06-09T09:17:24Z</time>
      </trkpt>
      <trkpt lat="49.40867" lon="0.16801">
        <ele>4.7</ele>
        <time>2015-06-09T09:17:24Z</time>
      </trkpt>
      <trkpt lat="49.40864" lon="0.16812">
        <ele>4.9</ele>
        <time>2015-06-09T09:17:24Z</time>
      </trkpt>
      <trkpt lat="49.4086" lon="0.16824">
        <ele>5</ele>
        <time>2015-06-09T09:17:24Z</time>
      </trkpt>
      <trkpt lat="49.40856" lon="0.16835">
        <ele>5.2</ele>
        <time>2015-06-09T09:17:24Z</time>
      </trkpt>
      <trkpt lat="49.40852" lon="0.16845">
        <ele>5.2</ele>
        <time>2015-06-09T09:17:24Z</time>
      </trkpt>
      <trkpt lat="49.40848" lon="0.16855">
        <ele>5.1</ele>
        <time>2015-06-09T09:17:24Z</time>
      </trkpt>
      <trkpt lat="49.40845" lon="0.16871">
        <ele>5</ele>
        <time>2015-06-09T09:17:24Z</time>
      </trkpt>
      <trkpt lat="49.40842" lon="0.16881">
        <ele>5</ele>
        <time>2015-06-09T09:17:24Z</time>
      </trkpt>
      <trkpt lat="49.40837" lon="0.16892">
        <ele>5</ele>
        <time>2015-06-09T09:17:24Z</time>
      </trkpt>
      <trkpt lat="49.40833" lon="0.16901">
        <ele>5</ele>
        <time>2015-06-09T09:17:24Z</time>
      </trkpt>
      <trkpt lat="49.40834" lon="0.16913">
        <ele>5</ele>
        <time>2015-06-09T09:17:24Z</time>
      </trkpt>
      <trkpt lat="49.40838" lon="0.16921">
        <ele>5</ele>
        <time>2015-06-09T09:17:24Z</time>
      </trkpt>
      <trkpt lat="49.40842" lon="0.16934">
        <ele>5</ele>
        <time>2015-06-09T09:17:24Z</time>
      </trkpt>
      <trkpt lat="49.40848" lon="0.16943">
        <ele>5</ele>
        <time>2015-06-09T09:17:24Z</time>
      </trkpt>
      <trkpt lat="49.40852" lon="0.16954">
        <ele>5</ele>
        <time>2015-06-09T09:17:24Z</time>
      </trkpt>
      <trkpt lat="49.40856" lon="0.16967">
        <ele>5</ele>
        <time>2015-06-09T09:17:24Z</time>
      </trkpt>
      <trkpt lat="49.4086" lon="0.16975">
        <ele>5</ele>
        <time>2015-06-09T09:17:24Z</time>
      </trkpt>
      <trkpt lat="49.40864" lon="0.16986">
        <ele>5</ele>
        <time>2015-06-09T09:17:24Z</time>
      </trkpt>
      <trkpt lat="49.40867" lon="0.16997">
        <ele>5</ele>
        <time>2015-06-09T09:17:24Z</time>
      </trkpt>
      <trkpt lat="49.4087" lon="0.17008">
        <ele>5</ele>
        <time>2015-06-09T09:17:24Z</time>
      </trkpt>
      <trkpt lat="49.40873" lon="0.17021">
        <ele>5</ele>
        <time>2015-06-09T09:17:24Z</time>
      </trkpt>
      <trkpt lat="49.40876" lon="0.17032">
        <ele>5</ele>
        <time>2015-06-09T09:17:24Z</time>
      </trkpt>
      <trkpt lat="49.40879" lon="0.17044">
        <ele>5</ele>
        <time>2015-06-09T09:17:24Z</time>
      </trkpt>
      <trkpt lat="49.40881" lon="0.17054">
        <ele>5</ele>
        <time>2015-06-09T09:17:24Z</time>
      </trkpt>
      <trkpt lat="49.40883" lon="0.17059">
        <ele>5.1</ele>
        <time>2015-06-09T09:17:24Z</time>
      </trkpt>
      <trkpt lat="49.40888" lon="0.17079">
        <ele>5.8</ele>
        <time>2015-06-09T09:17:24Z</time>
      </trkpt>
      <trkpt lat="49.40892" lon="0.1709">
        <ele>6</ele>
        <time>2015-06-09T09:17:24Z</time>
      </trkpt>
      <trkpt lat="49.40896" lon="0.17102">
        <ele>6</ele>
        <time>2015-06-09T09:17:24Z</time>
      </trkpt>
      <trkpt lat="49.40895" lon="0.1711">
        <ele>6</ele>
        <time>2015-06-09T09:17:24Z</time>
      </trkpt>
      <trkpt lat="49.40896" lon="0.17119">
        <ele>5.9</ele>
        <time>2015-06-09T09:17:24Z</time>
      </trkpt>
      <trkpt lat="49.409" lon="0.17135">
        <ele>5.7</ele>
        <time>2015-06-09T09:17:24Z</time>
      </trkpt>
      <trkpt lat="49.40903" lon="0.17144">
        <ele>5.5</ele>
        <time>2015-06-09T09:17:24Z</time>
      </trkpt>
      <trkpt lat="49.40906" lon="0.17154">
        <ele>5.4</ele>
        <time>2015-06-09T09:17:24Z</time>
      </trkpt>
      <trkpt lat="49.40909" lon="0.17164">
        <ele>5.3</ele>
        <time>2015-06-09T09:17:24Z</time>
      </trkpt>
      <trkpt lat="49.40912" lon="0.17172">
        <ele>5.2</ele>
        <time>2015-06-09T09:17:24Z</time>
      </trkpt>
      <trkpt lat="49.40913" lon="0.17175">
        <ele>5.1</ele>
        <time>2015-06-09T09:17:24Z</time>
      </trkpt>
      <trkpt lat="49.40915" lon="0.17182">
        <ele>5.1</ele>
        <time>2015-06-09T09:17:24Z</time>
      </trkpt>
      <trkpt lat="49.40919" lon="0.17192">
        <ele>5</ele>
        <time>2015-06-09T09:17:24Z</time>
      </trkpt>
      <trkpt lat="49.40923" lon="0.17203">
        <ele>5</ele>
        <time>2015-06-09T09:17:24Z</time>
      </trkpt>
      <trkpt lat="49.40926" lon="0.17213">
        <ele>5</ele>
        <time>2015-06-09T09:17:24Z</time>
      </trkpt>
      <trkpt lat="49.4093" lon="0.17224">
        <ele>5</ele>
        <time>2015-06-09T09:17:24Z</time>
      </trkpt>
      <trkpt lat="49.40934" lon="0.17235">
        <ele>5.2</ele>
        <time>2015-06-09T09:17:24Z</time>
      </trkpt>
      <trkpt lat="49.40937" lon="0.17246">
        <ele>5.2</ele>
        <time>2015-06-09T09:17:24Z</time>
      </trkpt>
      <trkpt lat="49.40941" lon="0.17255">
        <ele>5.3</ele>
        <time>2015-06-09T09:17:24Z</time>
      </trkpt>
      <trkpt lat="49.40946" lon="0.17266">
        <ele>5.5</ele>
        <time>2015-06-09T09:17:24Z</time>
      </trkpt>
      <trkpt lat="49.4095" lon="0.17276">
        <ele>5.8</ele>
        <time>2015-06-09T09:17:24Z</time>
      </trkpt>
      <trkpt lat="49.40953" lon="0.17286">
        <ele>5.8</ele>
        <time>2015-06-09T09:17:24Z</time>
      </trkpt>
      <trkpt lat="49.40957" lon="0.17296">
        <ele>5.8</ele>
        <time>2015-06-09T09:17:24Z</time>
      </trkpt>
      <trkpt lat="49.40959" lon="0.17305">
        <ele>6</ele>
        <time>2015-06-09T09:17:24Z</time>
      </trkpt>
      <trkpt lat="49.40964" lon="0.17314">
        <ele>6.3</ele>
        <time>2015-06-09T09:17:24Z</time>
      </trkpt>
      <trkpt lat="49.4097" lon="0.17322">
        <ele>6.6</ele>
        <time>2015-06-09T09:17:24Z</time>
      </trkpt>
      <trkpt lat="49.40976" lon="0.1733">
        <ele>6.8</ele>
        <time>2015-06-09T09:17:24Z</time>
      </trkpt>
      <trkpt lat="49.40982" lon="0.1734">
        <ele>6.6</ele>
        <time>2015-06-09T09:17:24Z</time>
      </trkpt>
      <trkpt lat="49.40987" lon="0.17349">
        <ele>6.5</ele>
        <time>2015-06-09T09:17:24Z</time>
      </trkpt>
      <trkpt lat="49.40992" lon="0.17359">
        <ele>6.3</ele>
        <time>2015-06-09T09:17:24Z</time>
      </trkpt>
      <trkpt lat="49.40997" lon="0.17367">
        <ele>6.3</ele>
        <time>2015-06-09T09:17:24Z</time>
      </trkpt>
      <trkpt lat="49.41" lon="0.17376">
        <ele>6.5</ele>
        <time>2015-06-09T09:17:24Z</time>
      </trkpt>
      <trkpt lat="49.41005" lon="0.17385">
        <ele>6.7</ele>
        <time>2015-06-09T09:17:24Z</time>
      </trkpt>
      <trkpt lat="49.4101" lon="0.17394">
        <ele>6.6</ele>
        <time>2015-06-09T09:17:24Z</time>
      </trkpt>
      <trkpt lat="49.41015" lon="0.17402">
        <ele>6.5</ele>
        <time>2015-06-09T09:17:24Z</time>
      </trkpt>
      <trkpt lat="49.41019" lon="0.17412">
        <ele>6.3</ele>
        <time>2015-06-09T09:17:24Z</time>
      </trkpt>
      <trkpt lat="49.41025" lon="0.17422">
        <ele>6.3</ele>
        <time>2015-06-09T09:17:24Z</time>
      </trkpt>
      <trkpt lat="49.4103" lon="0.17431">
        <ele>6.4</ele>
        <time>2015-06-09T09:17:24Z</time>
      </trkpt>
      <trkpt lat="49.41035" lon="0.1744">
        <ele>6.6</ele>
        <time>2015-06-09T09:17:24Z</time>
      </trkpt>
      <trkpt lat="49.4104" lon="0.1745">
        <ele>6.7</ele>
        <time>2015-06-09T09:17:24Z</time>
      </trkpt>
      <trkpt lat="49.41044" lon="0.17459">
        <ele>6.6</ele>
        <time>2015-06-09T09:17:24Z</time>
      </trkpt>
      <trkpt lat="49.41049" lon="0.17469">
        <ele>6.5</ele>
        <time>2015-06-09T09:17:24Z</time>
      </trkpt>
      <trkpt lat="49.41052" lon="0.17479">
        <ele>6.5</ele>
        <time>2015-06-09T09:17:24Z</time>
      </trkpt>
      <trkpt lat="49.4105" lon="0.1749">
        <ele>6.9</ele>
        <time>2015-06-09T09:17:24Z</time>
      </trkpt>
      <trkpt lat="49.41046" lon="0.17496">
        <ele>7.3</ele>
        <time>2015-06-09T09:17:24Z</time>
      </trkpt>
      <trkpt lat="49.41043" lon="0.17503">
        <ele>7.5</ele>
        <time>2015-06-09T09:17:24Z</time>
      </trkpt>
      <trkpt lat="49.41037" lon="0.1751">
        <ele>7.8</ele>
        <time>2015-06-09T09:17:24Z</time>
      </trkpt>
      <trkpt lat="49.41031" lon="0.17517">
        <ele>8</ele>
        <time>2015-06-09T09:17:24Z</time>
      </trkpt>
      <trkpt lat="49.41025" lon="0.17521">
        <ele>8.2</ele>
        <time>2015-06-09T09:17:24Z</time>
      </trkpt>
      <trkpt lat="49.41018" lon="0.17526">
        <ele>8.7</ele>
        <time>2015-06-09T09:17:24Z</time>
      </trkpt>
      <trkpt lat="49.41012" lon="0.17532">
        <ele>9.2</ele>
        <time>2015-06-09T09:17:24Z</time>
      </trkpt>
      <trkpt lat="49.41005" lon="0.17537">
        <ele>9.7</ele>
        <time>2015-06-09T09:17:24Z</time>
      </trkpt>
      <trkpt lat="49.40998" lon="0.17543">
        <ele>10.1</ele>
        <time>2015-06-09T09:17:24Z</time>
      </trkpt>
      <trkpt lat="49.40992" lon="0.1755">
        <ele>10.3</ele>
        <time>2015-06-09T09:17:24Z</time>
      </trkpt>
      <trkpt lat="49.40986" lon="0.17557">
        <ele>10.5</ele>
        <time>2015-06-09T09:17:24Z</time>
      </trkpt>
      <trkpt lat="49.4098" lon="0.17563">
        <ele>10.9</ele>
        <time>2015-06-09T09:17:24Z</time>
      </trkpt>
      <trkpt lat="49.40973" lon="0.1757">
        <ele>11.5</ele>
        <time>2015-06-09T09:17:24Z</time>
      </trkpt>
      <trkpt lat="49.40967" lon="0.17576">
        <ele>11.9</ele>
        <time>2015-06-09T09:17:24Z</time>
      </trkpt>
      <trkpt lat="49.4096" lon="0.17582">
        <ele>12.4</ele>
        <time>2015-06-09T09:17:24Z</time>
      </trkpt>
      <trkpt lat="49.40953" lon="0.17588">
        <ele>12.7</ele>
        <time>2015-06-09T09:17:24Z</time>
      </trkpt>
      <trkpt lat="49.40947" lon="0.17592">
        <ele>12.9</ele>
        <time>2015-06-09T09:17:24Z</time>
      </trkpt>
      <trkpt lat="49.4094" lon="0.17598">
        <ele>13.2</ele>
        <time>2015-06-09T09:17:24Z</time>
      </trkpt>
      <trkpt lat="49.40933" lon="0.17604">
        <ele>13.4</ele>
        <time>2015-06-09T09:17:24Z</time>
      </trkpt>
      <trkpt lat="49.40927" lon="0.17609">
        <ele>13.6</ele>
        <time>2015-06-09T09:17:24Z</time>
      </trkpt>
      <trkpt lat="49.4092" lon="0.17615">
        <ele>13.9</ele>
        <time>2015-06-09T09:17:24Z</time>
      </trkpt>
      <trkpt lat="49.40913" lon="0.1762">
        <ele>14.2</ele>
        <time>2015-06-09T09:17:24Z</time>
      </trkpt>
      <trkpt lat="49.40907" lon="0.17624">
        <ele>14.5</ele>
        <time>2015-06-09T09:17:24Z</time>
      </trkpt>
      <trkpt lat="49.409" lon="0.1763">
        <ele>15</ele>
        <time>2015-06-09T09:17:24Z</time>
      </trkpt>
      <trkpt lat="49.40893" lon="0.17636">
        <ele>15.6</ele>
        <time>2015-06-09T09:17:24Z</time>
      </trkpt>
      <trkpt lat="49.40887" lon="0.17641">
        <ele>16</ele>
        <time>2015-06-09T09:17:24Z</time>
      </trkpt>
      <trkpt lat="49.40881" lon="0.17645">
        <ele>16.1</ele>
        <time>2015-06-09T09:17:24Z</time>
      </trkpt>
      <trkpt lat="49.40875" lon="0.17649">
        <ele>16.2</ele>
        <time>2015-06-09T09:17:24Z</time>
      </trkpt>
      <trkpt lat="49.40868" lon="0.17654">
        <ele>16.4</ele>
        <time>2015-06-09T09:17:24Z</time>
      </trkpt>
      <trkpt lat="49.40859" lon="0.17661">
        <ele>16.9</ele>
        <time>2015-06-09T09:17:24Z</time>
      </trkpt>
      <trkpt lat="49.40851" lon="0.17664">
        <ele>17.3</ele>
        <time>2015-06-09T09:17:24Z</time>
      </trkpt>
      <trkpt lat="49.40845" lon="0.17669">
        <ele>17.7</ele>
        <time>2015-06-09T09:17:24Z</time>
      </trkpt>
      <trkpt lat="49.40838" lon="0.17676">
        <ele>18.5</ele>
        <time>2015-06-09T09:17:24Z</time>
      </trkpt>
      <trkpt lat="49.40831" lon="0.17679">
        <ele>19</ele>
        <time>2015-06-09T09:17:24Z</time>
      </trkpt>
      <trkpt lat="49.40823" lon="0.17685">
        <ele>19.7</ele>
        <time>2015-06-09T09:17:24Z</time>
      </trkpt>
      <trkpt lat="49.40816" lon="0.17687">
        <ele>20.1</ele>
        <time>2015-06-09T09:17:24Z</time>
      </trkpt>
      <trkpt lat="49.4081" lon="0.17692">
        <ele>20.7</ele>
        <time>2015-06-09T09:17:24Z</time>
      </trkpt>
      <trkpt lat="49.40803" lon="0.17694">
        <ele>21.2</ele>
        <time>2015-06-09T09:17:24Z</time>
      </trkpt>
      <trkpt lat="49.40797" lon="0.17695">
        <ele>21.7</ele>
        <time>2015-06-09T09:17:24Z</time>
      </trkpt>
      <trkpt lat="49.40792" lon="0.17694">
        <ele>22</ele>
        <time>2015-06-09T09:17:24Z</time>
      </trkpt>
      <trkpt lat="49.40788" lon="0.17687">
        <ele>21.7</ele>
        <time>2015-06-09T09:17:24Z</time>
      </trkpt>
      <trkpt lat="49.40789" lon="0.17687">
        <ele>21.7</ele>
        <time>2015-06-09T09:17:24Z</time>
      </trkpt>
      <trkpt lat="49.40788" lon="0.17687">
        <ele>21.7</ele>
        <time>2015-06-09T09:17:24Z</time>
      </trkpt>
      <trkpt lat="49.40784" lon="0.17684">
        <ele>21.8</ele>
        <time>2015-06-09T09:17:24Z</time>
      </trkpt>
      <trkpt lat="49.40778" lon="0.17678">
        <ele>21.8</ele>
        <time>2015-06-09T09:17:24Z</time>
      </trkpt>
      <trkpt lat="49.40772" lon="0.17673">
        <ele>21.9</ele>
        <time>2015-06-09T09:17:24Z</time>
      </trkpt>
      <trkpt lat="49.40764" lon="0.17672">
        <ele>22.3</ele>
        <time>2015-06-09T09:17:24Z</time>
      </trkpt>
      <trkpt lat="49.40757" lon="0.1767">
        <ele>22.8</ele>
        <time>2015-06-09T09:17:24Z</time>
      </trkpt>
      <trkpt lat="49.40749" lon="0.1767">
        <ele>23.3</ele>
        <time>2015-06-09T09:17:24Z</time>
      </trkpt>
      <trkpt lat="49.40743" lon="0.1767">
        <ele>23.5</ele>
        <time>2015-06-09T09:17:24Z</time>
      </trkpt>
      <trkpt lat="49.40735" lon="0.17671">
        <ele>23.9</ele>
        <time>2015-06-09T09:17:24Z</time>
      </trkpt>
      <trkpt lat="49.40728" lon="0.17673">
        <ele>24.3</ele>
        <time>2015-06-09T09:17:24Z</time>
      </trkpt>
      <trkpt lat="49.40721" lon="0.17671">
        <ele>24.4</ele>
        <time>2015-06-09T09:17:24Z</time>
      </trkpt>
      <trkpt lat="49.40714" lon="0.17674">
        <ele>25</ele>
        <time>2015-06-09T09:17:24Z</time>
      </trkpt>
      <trkpt lat="49.40707" lon="0.17679">
        <ele>25.7</ele>
        <time>2015-06-09T09:17:24Z</time>
      </trkpt>
      <trkpt lat="49.40703" lon="0.17687">
        <ele>26.4</ele>
        <time>2015-06-09T09:17:24Z</time>
      </trkpt>
      <trkpt lat="49.40696" lon="0.17691">
        <ele>26.8</ele>
        <time>2015-06-09T09:17:24Z</time>
      </trkpt>
      <trkpt lat="49.40689" lon="0.1769">
        <ele>27.2</ele>
        <time>2015-06-09T09:17:24Z</time>
      </trkpt>
      <trkpt lat="49.40682" lon="0.17692">
        <ele>27.8</ele>
        <time>2015-06-09T09:17:24Z</time>
      </trkpt>
      <trkpt lat="49.40674" lon="0.17694">
        <ele>28.5</ele>
        <time>2015-06-09T09:17:24Z</time>
      </trkpt>
      <trkpt lat="49.40666" lon="0.17696">
        <ele>29.2</ele>
        <time>2015-06-09T09:17:24Z</time>
      </trkpt>
      <trkpt lat="49.40661" lon="0.17695">
        <ele>29.1</ele>
        <time>2015-06-09T09:17:24Z</time>
      </trkpt>
      <trkpt lat="49.40654" lon="0.17698">
        <ele>29.4</ele>
        <time>2015-06-09T09:17:24Z</time>
      </trkpt>
      <trkpt lat="49.40648" lon="0.177">
        <ele>29.5</ele>
        <time>2015-06-09T09:17:24Z</time>
      </trkpt>
      <trkpt lat="49.40641" lon="0.17705">
        <ele>29.8</ele>
        <time>2015-06-09T09:17:24Z</time>
      </trkpt>
      <trkpt lat="49.40633" lon="0.17715">
        <ele>30.6</ele>
        <time>2015-06-09T09:17:24Z</time>
      </trkpt>
      <trkpt lat="49.4063" lon="0.17726">
        <ele>31.2</ele>
        <time>2015-06-09T09:17:24Z</time>
      </trkpt>
      <trkpt lat="49.40625" lon="0.17734">
        <ele>31.8</ele>
        <time>2015-06-09T09:17:24Z</time>
      </trkpt>
      <trkpt lat="49.4062" lon="0.17743">
        <ele>32.5</ele>
        <time>2015-06-09T09:17:24Z</time>
      </trkpt>
      <trkpt lat="49.40615" lon="0.1775">
        <ele>33</ele>
        <time>2015-06-09T09:17:24Z</time>
      </trkpt>
      <trkpt lat="49.4061" lon="0.17754">
        <ele>33.8</ele>
        <time>2015-06-09T09:17:24Z</time>
      </trkpt>
      <trkpt lat="49.40605" lon="0.1776">
        <ele>34.7</ele>
        <time>2015-06-09T09:17:24Z</time>
      </trkpt>
      <trkpt lat="49.40601" lon="0.17761">
        <ele>34.9</ele>
        <time>2015-06-09T09:17:24Z</time>
      </trkpt>
      <trkpt lat="49.40599" lon="0.17764">
        <ele>35.3</ele>
        <time>2015-06-09T09:17:24Z</time>
      </trkpt>
      <trkpt lat="49.40596" lon="0.17769">
        <ele>35.9</ele>
        <time>2015-06-09T09:17:24Z</time>
      </trkpt>
      <trkpt lat="49.40591" lon="0.17775">
        <ele>36.3</ele>
        <time>2015-06-09T09:17:24Z</time>
      </trkpt>
      <trkpt lat="49.40585" lon="0.17782">
        <ele>36.9</ele>
        <time>2015-06-09T09:17:24Z</time>
      </trkpt>
      <trkpt lat="49.40578" lon="0.17787">
        <ele>37.6</ele>
        <time>2015-06-09T09:17:24Z</time>
      </trkpt>
      <trkpt lat="49.40576" lon="0.17804">
        <ele>40</ele>
        <time>2015-06-09T09:17:24Z</time>
      </trkpt>
      <trkpt lat="49.40571" lon="0.17811">
        <ele>40</ele>
        <time>2015-06-09T09:17:24Z</time>
      </trkpt>
      <trkpt lat="49.40568" lon="0.17815">
        <ele>40.1</ele>
        <time>2015-06-09T09:17:24Z</time>
      </trkpt>
      <trkpt lat="49.40566" lon="0.17823">
        <ele>40.4</ele>
        <time>2015-06-09T09:17:24Z</time>
      </trkpt>
      <trkpt lat="49.40563" lon="0.17831">
        <ele>40.6</ele>
        <time>2015-06-09T09:17:24Z</time>
      </trkpt>
      <trkpt lat="49.4056" lon="0.1784">
        <ele>41.6</ele>
        <time>2015-06-09T09:17:24Z</time>
      </trkpt>
      <trkpt lat="49.40557" lon="0.17847">
        <ele>42.5</ele>
        <time>2015-06-09T09:17:24Z</time>
      </trkpt>
      <trkpt lat="49.40553" lon="0.17859">
        <ele>44.4</ele>
        <time>2015-06-09T09:17:24Z</time>
      </trkpt>
      <trkpt lat="49.40549" lon="0.17861">
        <ele>44.5</ele>
        <time>2015-06-09T09:17:24Z</time>
      </trkpt>
      <trkpt lat="49.40548" lon="0.17862">
        <ele>44.6</ele>
        <time>2015-06-09T09:17:24Z</time>
      </trkpt>
      <trkpt lat="49.40545" lon="0.17865">
        <ele>44.8</ele>
        <time>2015-06-09T09:17:24Z</time>
      </trkpt>
      <trkpt lat="49.40545" lon="0.17871">
        <ele>45.5</ele>
        <time>2015-06-09T09:17:24Z</time>
      </trkpt>
      <trkpt lat="49.40546" lon="0.17876">
        <ele>46.3</ele>
        <time>2015-06-09T09:17:24Z</time>
      </trkpt>
      <trkpt lat="49.40545" lon="0.17881">
        <ele>46.8</ele>
        <time>2015-06-09T09:17:24Z</time>
      </trkpt>
      <trkpt lat="49.4054" lon="0.17887">
        <ele>47</ele>
        <time>2015-06-09T09:17:24Z</time>
      </trkpt>
      <trkpt lat="49.40535" lon="0.17895">
        <ele>47.8</ele>
        <time>2015-06-09T09:17:24Z</time>
      </trkpt>
      <trkpt lat="49.40534" lon="0.17897">
        <ele>48</ele>
        <time>2015-06-09T09:17:24Z</time>
      </trkpt>
      <trkpt lat="49.40532" lon="0.179">
        <ele>48.2</ele>
        <time>2015-06-09T09:17:24Z</time>
      </trkpt>
      <trkpt lat="49.40523" lon="0.17917">
        <ele>50.2</ele>
        <time>2015-06-09T09:17:24Z</time>
      </trkpt>
      <trkpt lat="49.40517" lon="0.17925">
        <ele>50.5</ele>
        <time>2015-06-09T09:17:24Z</time>
      </trkpt>
      <trkpt lat="49.40516" lon="0.17934">
        <ele>51.4</ele>
        <time>2015-06-09T09:17:24Z</time>
      </trkpt>
      <trkpt lat="49.40513" lon="0.17943">
        <ele>52.2</ele>
        <time>2015-06-09T09:17:24Z</time>
      </trkpt>
      <trkpt lat="49.40512" lon="0.17949">
        <ele>52.7</ele>
        <time>2015-06-09T09:17:24Z</time>
      </trkpt>
      <trkpt lat="49.40511" lon="0.17961">
        <ele>54.2</ele>
        <time>2015-06-09T09:17:24Z</time>
      </trkpt>
      <trkpt lat="49.40508" lon="0.17971">
        <ele>55.2</ele>
        <time>2015-06-09T09:17:24Z</time>
      </trkpt>
      <trkpt lat="49.40506" lon="0.17982">
        <ele>56.4</ele>
        <time>2015-06-09T09:17:24Z</time>
      </trkpt>
      <trkpt lat="49.40503" lon="0.17991">
        <ele>57.3</ele>
        <time>2015-06-09T09:17:24Z</time>
      </trkpt>
      <trkpt lat="49.40498" lon="0.18001">
        <ele>58.2</ele>
        <time>2015-06-09T09:17:24Z</time>
      </trkpt>
      <trkpt lat="49.40494" lon="0.18005">
        <ele>58.8</ele>
        <time>2015-06-09T09:17:24Z</time>
      </trkpt>
      <trkpt lat="49.40491" lon="0.18009">
        <ele>59.5</ele>
        <time>2015-06-09T09:17:24Z</time>
      </trkpt>
      <trkpt lat="49.40479" lon="0.18018">
        <ele>62.4</ele>
        <time>2015-06-09T09:17:24Z</time>
      </trkpt>
      <trkpt lat="49.40476" lon="0.18021">
        <ele>63.5</ele>
        <time>2015-06-09T09:17:24Z</time>
      </trkpt>
      <trkpt lat="49.40474" lon="0.18026">
        <ele>65.1</ele>
        <time>2015-06-09T09:17:24Z</time>
      </trkpt>
      <trkpt lat="49.40468" lon="0.18032">
        <ele>66.5</ele>
        <time>2015-06-09T09:17:24Z</time>
      </trkpt>
      <trkpt lat="49.40461" lon="0.18046">
        <ele>69</ele>
        <time>2015-06-09T09:17:24Z</time>
      </trkpt>
      <trkpt lat="49.40462" lon="0.18058">
        <ele>72.4</ele>
        <time>2015-06-09T09:17:24Z</time>
      </trkpt>
      <trkpt lat="49.4046" lon="0.18061">
        <ele>72.9</ele>
        <time>2015-06-09T09:17:24Z</time>
      </trkpt>
      <trkpt lat="49.40452" lon="0.18066">
        <ele>73.1</ele>
        <time>2015-06-09T09:17:24Z</time>
      </trkpt>
      <trkpt lat="49.40444" lon="0.18068">
        <ele>72.6</ele>
        <time>2015-06-09T09:17:24Z</time>
      </trkpt>
      <trkpt lat="49.40436" lon="0.18069">
        <ele>74.3</ele>
        <time>2015-06-09T09:17:24Z</time>
      </trkpt>
      <trkpt lat="49.40431" lon="0.18065">
        <ele>74</ele>
        <time>2015-06-09T09:17:24Z</time>
      </trkpt>
      <trkpt lat="49.40425" lon="0.18067">
        <ele>75.4</ele>
        <time>2015-06-09T09:17:24Z</time>
      </trkpt>
      <trkpt lat="49.40419" lon="0.18067">
        <ele>76.3</ele>
        <time>2015-06-09T09:17:24Z</time>
      </trkpt>
      <trkpt lat="49.40414" lon="0.18073">
        <ele>78.3</ele>
        <time>2015-06-09T09:17:24Z</time>
      </trkpt>
      <trkpt lat="49.40411" lon="0.18076">
        <ele>79.1</ele>
        <time>2015-06-09T09:17:24Z</time>
      </trkpt>
      <trkpt lat="49.40407" lon="0.18085">
        <ele>81.3</ele>
        <time>2015-06-09T09:17:24Z</time>
      </trkpt>
      <trkpt lat="49.40403" lon="0.18089">
        <ele>81.8</ele>
        <time>2015-06-09T09:17:24Z</time>
      </trkpt>
      <trkpt lat="49.40398" lon="0.18094">
        <ele>82.2</ele>
        <time>2015-06-09T09:17:24Z</time>
      </trkpt>
      <trkpt lat="49.40397" lon="0.18101">
        <ele>83.3</ele>
        <time>2015-06-09T09:17:24Z</time>
      </trkpt>
      <trkpt lat="49.40396" lon="0.18108">
        <ele>84.7</ele>
        <time>2015-06-09T09:17:24Z</time>
      </trkpt>
      <trkpt lat="49.40392" lon="0.18113">
        <ele>85.2</ele>
        <time>2015-06-09T09:17:24Z</time>
      </trkpt>
      <trkpt lat="49.40386" lon="0.18122">
        <ele>86.2</ele>
        <time>2015-06-09T09:17:24Z</time>
      </trkpt>
      <trkpt lat="49.40381" lon="0.18128">
        <ele>86.6</ele>
        <time>2015-06-09T09:17:24Z</time>
      </trkpt>
      <trkpt lat="49.40376" lon="0.18135">
        <ele>87.2</ele>
        <time>2015-06-09T09:17:24Z</time>
      </trkpt>
      <trkpt lat="49.40373" lon="0.18148">
        <ele>89.2</ele>
        <time>2015-06-09T09:17:24Z</time>
      </trkpt>
      <trkpt lat="49.40374" lon="0.18161">
        <ele>92.3</ele>
        <time>2015-06-09T09:17:24Z</time>
      </trkpt>
      <trkpt lat="49.40375" lon="0.18172">
        <ele>94.6</ele>
        <time>2015-06-09T09:17:24Z</time>
      </trkpt>
      <trkpt lat="49.40373" lon="0.18179">
        <ele>95.5</ele>
        <time>2015-06-09T09:17:24Z</time>
      </trkpt>
      <trkpt lat="49.40378" lon="0.18179">
        <ele>96.5</ele>
        <time>2015-06-09T09:17:24Z</time>
      </trkpt>
      <trkpt lat="49.40382" lon="0.18175">
        <ele>96.4</ele>
        <time>2015-06-09T09:17:24Z</time>
      </trkpt>
      <trkpt lat="49.40387" lon="0.18165">
        <ele>95.3</ele>
        <time>2015-06-09T09:17:24Z</time>
      </trkpt>
      <trkpt lat="49.40393" lon="0.18155">
        <ele>94.9</ele>
        <time>2015-06-09T09:17:24Z</time>
      </trkpt>
      <trkpt lat="49.40397" lon="0.1815">
        <ele>94.8</ele>
        <time>2015-06-09T09:17:24Z</time>
      </trkpt>
      <trkpt lat="49.40404" lon="0.18147">
        <ele>95.4</ele>
        <time>2015-06-09T09:17:24Z</time>
      </trkpt>
      <trkpt lat="49.40414" lon="0.18148">
        <ele>96.9</ele>
        <time>2015-06-09T09:17:24Z</time>
      </trkpt>
      <trkpt lat="49.40424" lon="0.18154">
        <ele>97.2</ele>
        <time>2015-06-09T09:17:24Z</time>
      </trkpt>
      <trkpt lat="49.40431" lon="0.1816">
        <ele>97.5</ele>
        <time>2015-06-09T09:17:24Z</time>
      </trkpt>
      <trkpt lat="49.40438" lon="0.18165">
        <ele>98</ele>
        <time>2015-06-09T09:17:24Z</time>
      </trkpt>
      <trkpt lat="49.40444" lon="0.18165">
        <ele>97.6</ele>
        <time>2015-06-09T09:17:24Z</time>
      </trkpt>
      <trkpt lat="49.4045" lon="0.18166">
        <ele>98.1</ele>
        <time>2015-06-09T09:17:24Z</time>
      </trkpt>
      <trkpt lat="49.40457" lon="0.18167">
        <ele>99</ele>
        <time>2015-06-09T09:17:24Z</time>
      </trkpt>
      <trkpt lat="49.40464" lon="0.18171">
        <ele>100.2</ele>
        <time>2015-06-09T09:17:24Z</time>
      </trkpt>
      <trkpt lat="49.40469" lon="0.1817">
        <ele>100.4</ele>
        <time>2015-06-09T09:17:24Z</time>
      </trkpt>
      <trkpt lat="49.40477" lon="0.18169">
        <ele>100.8</ele>
        <time>2015-06-09T09:17:24Z</time>
      </trkpt>
      <trkpt lat="49.40483" lon="0.18166">
        <ele>101.1</ele>
        <time>2015-06-09T09:17:24Z</time>
      </trkpt>
      <trkpt lat="49.40489" lon="0.18159">
        <ele>100.3</ele>
        <time>2015-06-09T09:17:24Z</time>
      </trkpt>
      <trkpt lat="49.40494" lon="0.18154">
        <ele>100.2</ele>
        <time>2015-06-09T09:17:24Z</time>
      </trkpt>
      <trkpt lat="49.405" lon="0.18151">
        <ele>100.8</ele>
        <time>2015-06-09T09:17:24Z</time>
      </trkpt>
      <trkpt lat="49.40511" lon="0.1815">
        <ele>101.6</ele>
        <time>2015-06-09T09:17:24Z</time>
      </trkpt>
      <trkpt lat="49.40522" lon="0.18151">
        <ele>102.8</ele>
        <time>2015-06-09T09:17:24Z</time>
      </trkpt>
      <trkpt lat="49.4053" lon="0.18157">
        <ele>103.7</ele>
        <time>2015-06-09T09:17:24Z</time>
      </trkpt>
      <trkpt lat="49.40535" lon="0.18168">
        <ele>104.9</ele>
        <time>2015-06-09T09:17:24Z</time>
      </trkpt>
      <trkpt lat="49.40534" lon="0.1817">
        <ele>105.1</ele>
        <time>2015-06-09T09:17:24Z</time>
      </trkpt>
      <trkpt lat="49.40528" lon="0.18174">
        <ele>105.5</ele>
        <time>2015-06-09T09:17:24Z</time>
      </trkpt>
      <trkpt lat="49.40522" lon="0.18181">
        <ele>105.7</ele>
        <time>2015-06-09T09:17:24Z</time>
      </trkpt>
      <trkpt lat="49.40518" lon="0.18184">
        <ele>105.7</ele>
        <time>2015-06-09T09:17:24Z</time>
      </trkpt>
      <trkpt lat="49.40511" lon="0.18186">
        <ele>105.6</ele>
        <time>2015-06-09T09:17:24Z</time>
      </trkpt>
      <trkpt lat="49.40503" lon="0.18187">
        <ele>105.4</ele>
        <time>2015-06-09T09:17:24Z</time>
      </trkpt>
      <trkpt lat="49.40497" lon="0.18189">
        <ele>105.3</ele>
        <time>2015-06-09T09:17:24Z</time>
      </trkpt>
      <trkpt lat="49.40491" lon="0.18192">
        <ele>105.4</ele>
        <time>2015-06-09T09:17:24Z</time>
      </trkpt>
      <trkpt lat="49.40488" lon="0.18194">
        <ele>105.5</ele>
        <time>2015-06-09T09:17:24Z</time>
      </trkpt>
      <trkpt lat="49.40484" lon="0.18196">
        <ele>105.5</ele>
        <time>2015-06-09T09:17:24Z</time>
      </trkpt>
      <trkpt lat="49.40475" lon="0.18204">
        <ele>105.7</ele>
        <time>2015-06-09T09:17:24Z</time>
      </trkpt>
      <trkpt lat="49.40465" lon="0.18205">
        <ele>105.6</ele>
        <time>2015-06-09T09:17:24Z</time>
      </trkpt>
      <trkpt lat="49.40459" lon="0.18208">
        <ele>105.7</ele>
        <time>2015-06-09T09:17:24Z</time>
      </trkpt>
      <trkpt lat="49.40455" lon="0.18214">
        <ele>106.2</ele>
        <time>2015-06-09T09:17:24Z</time>
      </trkpt>
      <trkpt lat="49.40447" lon="0.18217">
        <ele>106.5</ele>
        <time>2015-06-09T09:17:24Z</time>
      </trkpt>
      <trkpt lat="49.40444" lon="0.18218">
        <ele>106.6</ele>
        <time>2015-06-09T09:17:24Z</time>
      </trkpt>
      <trkpt lat="49.4044" lon="0.1822">
        <ele>106.7</ele>
        <time>2015-06-09T09:17:24Z</time>
      </trkpt>
      <trkpt lat="49.40431" lon="0.18219">
        <ele>106.3</ele>
        <time>2015-06-09T09:17:24Z</time>
      </trkpt>
      <trkpt lat="49.40425" lon="0.18225">
        <ele>106.4</ele>
        <time>2015-06-09T09:17:24Z</time>
      </trkpt>
      <trkpt lat="49.4042" lon="0.18229">
        <ele>106.3</ele>
        <time>2015-06-09T09:17:24Z</time>
      </trkpt>
      <trkpt lat="49.40413" lon="0.18228">
        <ele>106.1</ele>
        <time>2015-06-09T09:17:24Z</time>
      </trkpt>
      <trkpt lat="49.40406" lon="0.18232">
        <ele>106.1</ele>
        <time>2015-06-09T09:17:24Z</time>
      </trkpt>
      <trkpt lat="49.40397" lon="0.18234">
        <ele>106</ele>
        <time>2015-06-09T09:17:24Z</time>
      </trkpt>
      <trkpt lat="49.40393" lon="0.18239">
        <ele>106.3</ele>
        <time>2015-06-09T09:17:24Z</time>
      </trkpt>
      <trkpt lat="49.40386" lon="0.18245">
        <ele>106.5</ele>
        <time>2015-06-09T09:17:24Z</time>
      </trkpt>
      <trkpt lat="49.40379" lon="0.18245">
        <ele>106.1</ele>
        <time>2015-06-09T09:17:24Z</time>
      </trkpt>
      <trkpt lat="49.40373" lon="0.18248">
        <ele>106.3</ele>
        <time>2015-06-09T09:17:24Z</time>
      </trkpt>
      <trkpt lat="49.40367" lon="0.18256">
        <ele>106.6</ele>
        <time>2015-06-09T09:17:24Z</time>
      </trkpt>
      <trkpt lat="49.40356" lon="0.18262">
        <ele>106.7</ele>
        <time>2015-06-09T09:17:24Z</time>
      </trkpt>
      <trkpt lat="49.40351" lon="0.18266">
        <ele>106.8</ele>
        <time>2015-06-09T09:17:24Z</time>
      </trkpt>
      <trkpt lat="49.40347" lon="0.18271">
        <ele>107</ele>
        <time>2015-06-09T09:17:24Z</time>
      </trkpt>
      <trkpt lat="49.40341" lon="0.18276">
        <ele>107.1</ele>
        <time>2015-06-09T09:17:24Z</time>
      </trkpt>
      <trkpt lat="49.40334" lon="0.18282">
        <ele>107.2</ele>
        <time>2015-06-09T09:17:24Z</time>
      </trkpt>
      <trkpt lat="49.4033" lon="0.18285">
        <ele>107.2</ele>
        <time>2015-06-09T09:17:24Z</time>
      </trkpt>
      <trkpt lat="49.40324" lon="0.18294">
        <ele>107.4</ele>
        <time>2015-06-09T09:17:24Z</time>
      </trkpt>
      <trkpt lat="49.40317" lon="0.18296">
        <ele>107.5</ele>
        <time>2015-06-09T09:17:24Z</time>
      </trkpt>
      <trkpt lat="49.40313" lon="0.18298">
        <ele>107.6</ele>
        <time>2015-06-09T09:17:24Z</time>
      </trkpt>
      <trkpt lat="49.40306" lon="0.18302">
        <ele>107.7</ele>
        <time>2015-06-09T09:17:24Z</time>
      </trkpt>
      <trkpt lat="49.40299" lon="0.18307">
        <ele>107.6</ele>
        <time>2015-06-09T09:17:24Z</time>
      </trkpt>
      <trkpt lat="49.4029" lon="0.18312">
        <ele>107.1</ele>
        <time>2015-06-09T09:17:24Z</time>
      </trkpt>
      <trkpt lat="49.40285" lon="0.18315">
        <ele>107</ele>
        <time>2015-06-09T09:17:24Z</time>
      </trkpt>
      <trkpt lat="49.40279" lon="0.1832">
        <ele>107.1</ele>
        <time>2015-06-09T09:17:24Z</time>
      </trkpt>
      <trkpt lat="49.40272" lon="0.18324">
        <ele>107.2</ele>
        <time>2015-06-09T09:17:24Z</time>
      </trkpt>
      <trkpt lat="49.40268" lon="0.18329">
        <ele>107.7</ele>
        <time>2015-06-09T09:17:24Z</time>
      </trkpt>
      <trkpt lat="49.40259" lon="0.18334">
        <ele>108</ele>
        <time>2015-06-09T09:17:24Z</time>
      </trkpt>
      <trkpt lat="49.40254" lon="0.18335">
        <ele>108.1</ele>
        <time>2015-06-09T09:17:24Z</time>
      </trkpt>
      <trkpt lat="49.40247" lon="0.18338">
        <ele>108.1</ele>
        <time>2015-06-09T09:17:24Z</time>
      </trkpt>
      <trkpt lat="49.4024" lon="0.18342">
        <ele>108.1</ele>
        <time>2015-06-09T09:17:24Z</time>
      </trkpt>
      <trkpt lat="49.40234" lon="0.18348">
        <ele>108.3</ele>
        <time>2015-06-09T09:17:24Z</time>
      </trkpt>
      <trkpt lat="49.40227" lon="0.18355">
        <ele>108.6</ele>
        <time>2015-06-09T09:17:24Z</time>
      </trkpt>
      <trkpt lat="49.40223" lon="0.18359">
        <ele>108.9</ele>
        <time>2015-06-09T09:17:24Z</time>
      </trkpt>
      <trkpt lat="49.40216" lon="0.18363">
        <ele>108.6</ele>
        <time>2015-06-09T09:17:24Z</time>
      </trkpt>
      <trkpt lat="49.40211" lon="0.1837">
        <ele>108.4</ele>
        <time>2015-06-09T09:17:24Z</time>
      </trkpt>
      <trkpt lat="49.40205" lon="0.1837">
        <ele>108.1</ele>
        <time>2015-06-09T09:17:24Z</time>
      </trkpt>
      <trkpt lat="49.40202" lon="0.18372">
        <ele>108.1</ele>
        <time>2015-06-09T09:17:24Z</time>
      </trkpt>
      <trkpt lat="49.40196" lon="0.18377">
        <ele>108.2</ele>
        <time>2015-06-09T09:17:24Z</time>
      </trkpt>
      <trkpt lat="49.40185" lon="0.18388">
        <ele>108.6</ele>
        <time>2015-06-09T09:17:24Z</time>
      </trkpt>
      <trkpt lat="49.40176" lon="0.18396">
        <ele>108.7</ele>
        <time>2015-06-09T09:17:24Z</time>
      </trkpt>
      <trkpt lat="49.40166" lon="0.18398">
        <ele>108.6</ele>
        <time>2015-06-09T09:17:24Z</time>
      </trkpt>
      <trkpt lat="49.40159" lon="0.18398">
        <ele>108.2</ele>
        <time>2015-06-09T09:17:24Z</time>
      </trkpt>
      <trkpt lat="49.40152" lon="0.18409">
        <ele>108.8</ele>
        <time>2015-06-09T09:17:24Z</time>
      </trkpt>
      <trkpt lat="49.40145" lon="0.18409">
        <ele>108.5</ele>
        <time>2015-06-09T09:17:24Z</time>
      </trkpt>
      <trkpt lat="49.40137" lon="0.18412">
        <ele>108.5</ele>
        <time>2015-06-09T09:17:24Z</time>
      </trkpt>
      <trkpt lat="49.4013" lon="0.18416">
        <ele>108.6</ele>
        <time>2015-06-09T09:17:24Z</time>
      </trkpt>
      <trkpt lat="49.40122" lon="0.18421">
        <ele>108.7</ele>
        <time>2015-06-09T09:17:24Z</time>
      </trkpt>
      <trkpt lat="49.40115" lon="0.18425">
        <ele>108.7</ele>
        <time>2015-06-09T09:17:24Z</time>
      </trkpt>
      <trkpt lat="49.40107" lon="0.18434">
        <ele>108.8</ele>
        <time>2015-06-09T09:17:24Z</time>
      </trkpt>
      <trkpt lat="49.40098" lon="0.18445">
        <ele>109.1</ele>
        <time>2015-06-09T09:17:24Z</time>
      </trkpt>
      <trkpt lat="49.40093" lon="0.18448">
        <ele>108.8</ele>
        <time>2015-06-09T09:17:24Z</time>
      </trkpt>
      <trkpt lat="49.40088" lon="0.18455">
        <ele>108.9</ele>
        <time>2015-06-09T09:17:24Z</time>
      </trkpt>
      <trkpt lat="49.40067" lon="0.18473">
        <ele>109.4</ele>
        <time>2015-06-09T09:17:24Z</time>
      </trkpt>
      <trkpt lat="49.40059" lon="0.18471">
        <ele>109</ele>
        <time>2015-06-09T09:17:24Z</time>
      </trkpt>
      <trkpt lat="49.40051" lon="0.18471">
        <ele>108.9</ele>
        <time>2015-06-09T09:17:24Z</time>
      </trkpt>
      <trkpt lat="49.40044" lon="0.18474">
        <ele>109.1</ele>
        <time>2015-06-09T09:17:24Z</time>
      </trkpt>
      <trkpt lat="49.40036" lon="0.18477">
        <ele>109.2</ele>
        <time>2015-06-09T09:17:24Z</time>
      </trkpt>
      <trkpt lat="49.40029" lon="0.18481">
        <ele>109.3</ele>
        <time>2015-06-09T09:17:24Z</time>
      </trkpt>
      <trkpt lat="49.40021" lon="0.18486">
        <ele>109</ele>
        <time>2015-06-09T09:17:24Z</time>
      </trkpt>
      <trkpt lat="49.40015" lon="0.18491">
        <ele>108.9</ele>
        <time>2015-06-09T09:17:24Z</time>
      </trkpt>
      <trkpt lat="49.40009" lon="0.18498">
        <ele>109.2</ele>
        <time>2015-06-09T09:17:24Z</time>
      </trkpt>
      <trkpt lat="49.40002" lon="0.18506">
        <ele>109.3</ele>
        <time>2015-06-09T09:17:24Z</time>
      </trkpt>
      <trkpt lat="49.39984" lon="0.18526">
        <ele>109.3</ele>
        <time>2015-06-09T09:17:24Z</time>
      </trkpt>
      <trkpt lat="49.39977" lon="0.18531">
        <ele>109.3</ele>
        <time>2015-06-09T09:17:24Z</time>
      </trkpt>
      <trkpt lat="49.39969" lon="0.18537">
        <ele>109.1</ele>
        <time>2015-06-09T09:17:24Z</time>
      </trkpt>
      <trkpt lat="49.39962" lon="0.18544">
        <ele>109.1</ele>
        <time>2015-06-09T09:17:24Z</time>
      </trkpt>
      <trkpt lat="49.39954" lon="0.18549">
        <ele>109</ele>
        <time>2015-06-09T09:17:24Z</time>
      </trkpt>
      <trkpt lat="49.39945" lon="0.18553">
        <ele>108.8</ele>
        <time>2015-06-09T09:17:24Z</time>
      </trkpt>
      <trkpt lat="49.39941" lon="0.18558">
        <ele>108.9</ele>
        <time>2015-06-09T09:17:24Z</time>
      </trkpt>
      <trkpt lat="49.39934" lon="0.1856">
        <ele>108.8</ele>
        <time>2015-06-09T09:17:24Z</time>
      </trkpt>
      <trkpt lat="49.39924" lon="0.18569">
        <ele>109.1</ele>
        <time>2015-06-09T09:17:24Z</time>
      </trkpt>
      <trkpt lat="49.39916" lon="0.18573">
        <ele>109.2</ele>
        <time>2015-06-09T09:17:24Z</time>
      </trkpt>
      <trkpt lat="49.3991" lon="0.18577">
        <ele>109.2</ele>
        <time>2015-06-09T09:17:24Z</time>
      </trkpt>
      <trkpt lat="49.39902" lon="0.18583">
        <ele>109.4</ele>
        <time>2015-06-09T09:17:24Z</time>
      </trkpt>
      <trkpt lat="49.39897" lon="0.18587">
        <ele>109.5</ele>
        <time>2015-06-09T09:17:24Z</time>
      </trkpt>
      <trkpt lat="49.39889" lon="0.18594">
        <ele>109.7</ele>
        <time>2015-06-09T09:17:24Z</time>
      </trkpt>
      <trkpt lat="49.39881" lon="0.18601">
        <ele>109.7</ele>
        <time>2015-06-09T09:17:24Z</time>
      </trkpt>
      <trkpt lat="49.39874" lon="0.18608">
        <ele>109.6</ele>
        <time>2015-06-09T09:17:24Z</time>
      </trkpt>
      <trkpt lat="49.39867" lon="0.18615">
        <ele>109.6</ele>
        <time>2015-06-09T09:17:24Z</time>
      </trkpt>
      <trkpt lat="49.39862" lon="0.18621">
        <ele>109.7</ele>
        <time>2015-06-09T09:17:24Z</time>
      </trkpt>
      <trkpt lat="49.39856" lon="0.18627">
        <ele>109.7</ele>
        <time>2015-06-09T09:17:24Z</time>
      </trkpt>
      <trkpt lat="49.39848" lon="0.18636">
        <ele>109.7</ele>
        <time>2015-06-09T09:17:24Z</time>
      </trkpt>
      <trkpt lat="49.3984" lon="0.18644">
        <ele>109.8</ele>
        <time>2015-06-09T09:17:24Z</time>
      </trkpt>
      <trkpt lat="49.39834" lon="0.18648">
        <ele>109.7</ele>
        <time>2015-06-09T09:17:24Z</time>
      </trkpt>
      <trkpt lat="49.39826" lon="0.18656">
        <ele>109.6</ele>
        <time>2015-06-09T09:17:24Z</time>
      </trkpt>
      <trkpt lat="49.3982" lon="0.1866">
        <ele>109.4</ele>
        <time>2015-06-09T09:17:24Z</time>
      </trkpt>
      <trkpt lat="49.39814" lon="0.18667">
        <ele>109.6</ele>
        <time>2015-06-09T09:17:24Z</time>
      </trkpt>
      <trkpt lat="49.39807" lon="0.18671">
        <ele>109.3</ele>
        <time>2015-06-09T09:17:24Z</time>
      </trkpt>
      <trkpt lat="49.398" lon="0.18679">
        <ele>109.2</ele>
        <time>2015-06-09T09:17:24Z</time>
      </trkpt>
      <trkpt lat="49.39794" lon="0.18688">
        <ele>109.6</ele>
        <time>2015-06-09T09:17:24Z</time>
      </trkpt>
      <trkpt lat="49.39787" lon="0.18693">
        <ele>109.8</ele>
        <time>2015-06-09T09:17:24Z</time>
      </trkpt>
      <trkpt lat="49.39779" lon="0.187">
        <ele>110.2</ele>
        <time>2015-06-09T09:17:24Z</time>
      </trkpt>
      <trkpt lat="49.39773" lon="0.18703">
        <ele>109.8</ele>
        <time>2015-06-09T09:17:24Z</time>
      </trkpt>
      <trkpt lat="49.39767" lon="0.18708">
        <ele>109.4</ele>
        <time>2015-06-09T09:17:24Z</time>
      </trkpt>
      <trkpt lat="49.3976" lon="0.18716">
        <ele>109.2</ele>
        <time>2015-06-09T09:17:24Z</time>
      </trkpt>
      <trkpt lat="49.39753" lon="0.18727">
        <ele>109.4</ele>
        <time>2015-06-09T09:17:24Z</time>
      </trkpt>
      <trkpt lat="49.39747" lon="0.18735">
        <ele>109</ele>
        <time>2015-06-09T09:17:24Z</time>
      </trkpt>
      <trkpt lat="49.39741" lon="0.18743">
        <ele>108.8</ele>
        <time>2015-06-09T09:17:24Z</time>
      </trkpt>
      <trkpt lat="49.39735" lon="0.1875">
        <ele>108.9</ele>
        <time>2015-06-09T09:17:24Z</time>
      </trkpt>
      <trkpt lat="49.39728" lon="0.18758">
        <ele>108.9</ele>
        <time>2015-06-09T09:17:24Z</time>
      </trkpt>
      <trkpt lat="49.3972" lon="0.18769">
        <ele>109.1</ele>
        <time>2015-06-09T09:17:24Z</time>
      </trkpt>
      <trkpt lat="49.39714" lon="0.18774">
        <ele>109.1</ele>
        <time>2015-06-09T09:17:24Z</time>
      </trkpt>
      <trkpt lat="49.39712" lon="0.18781">
        <ele>109.4</ele>
        <time>2015-06-09T09:17:24Z</time>
      </trkpt>
      <trkpt lat="49.39704" lon="0.18791">
        <ele>109.5</ele>
        <time>2015-06-09T09:17:24Z</time>
      </trkpt>
      <trkpt lat="49.39695" lon="0.18802">
        <ele>109.8</ele>
        <time>2015-06-09T09:17:24Z</time>
      </trkpt>
      <trkpt lat="49.39689" lon="0.1881">
        <ele>109.5</ele>
        <time>2015-06-09T09:17:24Z</time>
      </trkpt>
      <trkpt lat="49.39684" lon="0.18814">
        <ele>109.2</ele>
        <time>2015-06-09T09:17:24Z</time>
      </trkpt>
      <trkpt lat="49.39679" lon="0.18821">
        <ele>109.3</ele>
        <time>2015-06-09T09:17:24Z</time>
      </trkpt>
      <trkpt lat="49.39675" lon="0.1883">
        <ele>109.7</ele>
        <time>2015-06-09T09:17:24Z</time>
      </trkpt>
      <trkpt lat="49.39668" lon="0.1884">
        <ele>110.2</ele>
        <time>2015-06-09T09:17:24Z</time>
      </trkpt>
      <trkpt lat="49.39662" lon="0.18852">
        <ele>110.5</ele>
        <time>2015-06-09T09:17:24Z</time>
      </trkpt>
      <trkpt lat="49.39656" lon="0.18857">
        <ele>110.4</ele>
        <time>2015-06-09T09:17:24Z</time>
      </trkpt>
      <trkpt lat="49.39651" lon="0.18865">
        <ele>110.6</ele>
        <time>2015-06-09T09:17:24Z</time>
      </trkpt>
      <trkpt lat="49.39646" lon="0.18873">
        <ele>110.7</ele>
        <time>2015-06-09T09:17:24Z</time>
      </trkpt>
      <trkpt lat="49.39641" lon="0.1888">
        <ele>110.7</ele>
        <time>2015-06-09T09:17:24Z</time>
      </trkpt>
      <trkpt lat="49.39635" lon="0.18892">
        <ele>110.7</ele>
        <time>2015-06-09T09:17:24Z</time>
      </trkpt>
      <trkpt lat="49.39629" lon="0.189">
        <ele>110.4</ele>
        <time>2015-06-09T09:17:24Z</time>
      </trkpt>
      <trkpt lat="49.39623" lon="0.18909">
        <ele>110.3</ele>
        <time>2015-06-09T09:17:24Z</time>
      </trkpt>
      <trkpt lat="49.39616" lon="0.18916">
        <ele>110.1</ele>
        <time>2015-06-09T09:17:24Z</time>
      </trkpt>
      <trkpt lat="49.39608" lon="0.18926">
        <ele>110.2</ele>
        <time>2015-06-09T09:17:24Z</time>
      </trkpt>
      <trkpt lat="49.39606" lon="0.18934">
        <ele>110.4</ele>
        <time>2015-06-09T09:17:24Z</time>
      </trkpt>
      <trkpt lat="49.39597" lon="0.18944">
        <ele>110.5</ele>
        <time>2015-06-09T09:17:24Z</time>
      </trkpt>
      <trkpt lat="49.39591" lon="0.18952">
        <ele>110.3</ele>
        <time>2015-06-09T09:17:24Z</time>
      </trkpt>
      <trkpt lat="49.39586" lon="0.1896">
        <ele>110.1</ele>
        <time>2015-06-09T09:17:24Z</time>
      </trkpt>
      <trkpt lat="49.39578" lon="0.18965">
        <ele>109.9</ele>
        <time>2015-06-09T09:17:24Z</time>
      </trkpt>
      <trkpt lat="49.39572" lon="0.18967">
        <ele>109.9</ele>
        <time>2015-06-09T09:17:24Z</time>
      </trkpt>
      <trkpt lat="49.39567" lon="0.18972">
        <ele>110</ele>
        <time>2015-06-09T09:17:24Z</time>
      </trkpt>
      <trkpt lat="49.3956" lon="0.18978">
        <ele>110</ele>
        <time>2015-06-09T09:17:24Z</time>
      </trkpt>
      <trkpt lat="49.39554" lon="0.18982">
        <ele>109.9</ele>
        <time>2015-06-09T09:17:24Z</time>
      </trkpt>
      <trkpt lat="49.39529" lon="0.18995">
        <ele>108.7</ele>
        <time>2015-06-09T09:17:24Z</time>
      </trkpt>
      <trkpt lat="49.39522" lon="0.18999">
        <ele>108.7</ele>
        <time>2015-06-09T09:17:24Z</time>
      </trkpt>
      <trkpt lat="49.39513" lon="0.19004">
        <ele>108.8</ele>
        <time>2015-06-09T09:17:24Z</time>
      </trkpt>
      <trkpt lat="49.39485" lon="0.19023">
        <ele>108.3</ele>
        <time>2015-06-09T09:17:24Z</time>
      </trkpt>
      <trkpt lat="49.39477" lon="0.19023">
        <ele>107.7</ele>
        <time>2015-06-09T09:17:24Z</time>
      </trkpt>
      <trkpt lat="49.39471" lon="0.19029">
        <ele>108</ele>
        <time>2015-06-09T09:17:24Z</time>
      </trkpt>
      <trkpt lat="49.39463" lon="0.19032">
        <ele>108</ele>
        <time>2015-06-09T09:17:24Z</time>
      </trkpt>
      <trkpt lat="49.39455" lon="0.19039">
        <ele>108.1</ele>
        <time>2015-06-09T09:17:24Z</time>
      </trkpt>
      <trkpt lat="49.3945" lon="0.19041">
        <ele>108.2</ele>
        <time>2015-06-09T09:17:24Z</time>
      </trkpt>
      <trkpt lat="49.39444" lon="0.19043">
        <ele>108</ele>
        <time>2015-06-09T09:17:24Z</time>
      </trkpt>
      <trkpt lat="49.39439" lon="0.19046">
        <ele>107.8</ele>
        <time>2015-06-09T09:17:24Z</time>
      </trkpt>
      <trkpt lat="49.39433" lon="0.19054">
        <ele>108</ele>
        <time>2015-06-09T09:17:24Z</time>
      </trkpt>
      <trkpt lat="49.39428" lon="0.19062">
        <ele>108</ele>
        <time>2015-06-09T09:17:24Z</time>
      </trkpt>
      <trkpt lat="49.39423" lon="0.19072">
        <ele>108</ele>
        <time>2015-06-09T09:17:24Z</time>
      </trkpt>
      <trkpt lat="49.39419" lon="0.19077">
        <ele>108</ele>
        <time>2015-06-09T09:17:24Z</time>
      </trkpt>
      <trkpt lat="49.39415" lon="0.1909">
        <ele>107.9</ele>
        <time>2015-06-09T09:17:24Z</time>
      </trkpt>
      <trkpt lat="49.39412" lon="0.19101">
        <ele>107.7</ele>
        <time>2015-06-09T09:17:24Z</time>
      </trkpt>
      <trkpt lat="49.39413" lon="0.19111">
        <ele>108.2</ele>
        <time>2015-06-09T09:17:24Z</time>
      </trkpt>
      <trkpt lat="49.39417" lon="0.19125">
        <ele>108.5</ele>
        <time>2015-06-09T09:17:24Z</time>
      </trkpt>
      <trkpt lat="49.39424" lon="0.19132">
        <ele>108.7</ele>
        <time>2015-06-09T09:17:24Z</time>
      </trkpt>
      <trkpt lat="49.39429" lon="0.19138">
        <ele>108.9</ele>
        <time>2015-06-09T09:17:24Z</time>
      </trkpt>
      <trkpt lat="49.39434" lon="0.19144">
        <ele>109</ele>
        <time>2015-06-09T09:17:24Z</time>
      </trkpt>
      <trkpt lat="49.39441" lon="0.19151">
        <ele>109.3</ele>
        <time>2015-06-09T09:17:24Z</time>
      </trkpt>
      <trkpt lat="49.3945" lon="0.19156">
        <ele>109.5</ele>
        <time>2015-06-09T09:17:24Z</time>
      </trkpt>
      <trkpt lat="49.39456" lon="0.19161">
        <ele>109.5</ele>
        <time>2015-06-09T09:17:24Z</time>
      </trkpt>
      <trkpt lat="49.39464" lon="0.19167">
        <ele>109.7</ele>
        <time>2015-06-09T09:17:24Z</time>
      </trkpt>
      <trkpt lat="49.39473" lon="0.19172">
        <ele>109.8</ele>
        <time>2015-06-09T09:17:24Z</time>
      </trkpt>
      <trkpt lat="49.3948" lon="0.19179">
        <ele>109.7</ele>
        <time>2015-06-09T09:17:24Z</time>
      </trkpt>
      <trkpt lat="49.39488" lon="0.19187">
        <ele>109.7</ele>
        <time>2015-06-09T09:17:24Z</time>
      </trkpt>
      <trkpt lat="49.39495" lon="0.19195">
        <ele>109.8</ele>
        <time>2015-06-09T09:17:24Z</time>
      </trkpt>
      <trkpt lat="49.39503" lon="0.19201">
        <ele>110</ele>
        <time>2015-06-09T09:17:24Z</time>
      </trkpt>
      <trkpt lat="49.3951" lon="0.19206">
        <ele>110</ele>
        <time>2015-06-09T09:17:24Z</time>
      </trkpt>
      <trkpt lat="49.39513" lon="0.19213">
        <ele>110</ele>
        <time>2015-06-09T09:17:24Z</time>
      </trkpt>
      <trkpt lat="49.39519" lon="0.19224">
        <ele>110</ele>
        <time>2015-06-09T09:17:24Z</time>
      </trkpt>
      <trkpt lat="49.39526" lon="0.19228">
        <ele>110</ele>
        <time>2015-06-09T09:17:24Z</time>
      </trkpt>
      <trkpt lat="49.3953" lon="0.19236">
        <ele>110</ele>
        <time>2015-06-09T09:17:24Z</time>
      </trkpt>
      <trkpt lat="49.39536" lon="0.19241">
        <ele>110</ele>
        <time>2015-06-09T09:17:24Z</time>
      </trkpt>
      <trkpt lat="49.39542" lon="0.19251">
        <ele>109.9</ele>
        <time>2015-06-09T09:17:24Z</time>
      </trkpt>
      <trkpt lat="49.39548" lon="0.19257">
        <ele>109.7</ele>
        <time>2015-06-09T09:17:24Z</time>
      </trkpt>
      <trkpt lat="49.39556" lon="0.19263">
        <ele>109.5</ele>
        <time>2015-06-09T09:17:24Z</time>
      </trkpt>
      <trkpt lat="49.39565" lon="0.1927">
        <ele>109.3</ele>
        <time>2015-06-09T09:17:24Z</time>
      </trkpt>
      <trkpt lat="49.3957" lon="0.19277">
        <ele>109</ele>
        <time>2015-06-09T09:17:24Z</time>
      </trkpt>
      <trkpt lat="49.39578" lon="0.19286">
        <ele>108.8</ele>
        <time>2015-06-09T09:17:24Z</time>
      </trkpt>
      <trkpt lat="49.39584" lon="0.19293">
        <ele>108.5</ele>
        <time>2015-06-09T09:17:24Z</time>
      </trkpt>
      <trkpt lat="49.39589" lon="0.193">
        <ele>108.4</ele>
        <time>2015-06-09T09:17:24Z</time>
      </trkpt>
      <trkpt lat="49.39594" lon="0.19307">
        <ele>108.3</ele>
        <time>2015-06-09T09:17:24Z</time>
      </trkpt>
      <trkpt lat="49.39601" lon="0.19314">
        <ele>108.3</ele>
        <time>2015-06-09T09:17:24Z</time>
      </trkpt>
      <trkpt lat="49.39604" lon="0.1932">
        <ele>108.2</ele>
        <time>2015-06-09T09:17:24Z</time>
      </trkpt>
      <trkpt lat="49.3961" lon="0.19329">
        <ele>108.1</ele>
        <time>2015-06-09T09:17:24Z</time>
      </trkpt>
      <trkpt lat="49.39615" lon="0.19337">
        <ele>107.9</ele>
        <time>2015-06-09T09:17:24Z</time>
      </trkpt>
      <trkpt lat="49.3962" lon="0.19344">
        <ele>107.7</ele>
        <time>2015-06-09T09:17:24Z</time>
      </trkpt>
      <trkpt lat="49.39624" lon="0.19352">
        <ele>107.4</ele>
        <time>2015-06-09T09:17:24Z</time>
      </trkpt>
      <trkpt lat="49.39625" lon="0.1936">
        <ele>107.1</ele>
        <time>2015-06-09T09:17:24Z</time>
      </trkpt>
      <trkpt lat="49.39639" lon="0.19379">
        <ele>106.7</ele>
        <time>2015-06-09T09:17:24Z</time>
      </trkpt>
      <trkpt lat="49.39643" lon="0.19385">
        <ele>106.6</ele>
        <time>2015-06-09T09:17:24Z</time>
      </trkpt>
      <trkpt lat="49.39653" lon="0.19389">
        <ele>107</ele>
        <time>2015-06-09T09:17:24Z</time>
      </trkpt>
      <trkpt lat="49.39669" lon="0.194">
        <ele>107.4</ele>
        <time>2015-06-09T09:17:24Z</time>
      </trkpt>
      <trkpt lat="49.3967" lon="0.19409">
        <ele>106.9</ele>
        <time>2015-06-09T09:17:24Z</time>
      </trkpt>
      <trkpt lat="49.39673" lon="0.19418">
        <ele>106.7</ele>
        <time>2015-06-09T09:17:24Z</time>
      </trkpt>
      <trkpt lat="49.39678" lon="0.19421">
        <ele>107.3</ele>
        <time>2015-06-09T09:17:24Z</time>
      </trkpt>
      <trkpt lat="49.39685" lon="0.19423">
        <ele>108</ele>
        <time>2015-06-09T09:17:24Z</time>
      </trkpt>
      <trkpt lat="49.39689" lon="0.19424">
        <ele>108.5</ele>
        <time>2015-06-09T09:17:24Z</time>
      </trkpt>
      <trkpt lat="49.39691" lon="0.19423">
        <ele>108.7</ele>
        <time>2015-06-09T09:17:24Z</time>
      </trkpt>
      <trkpt lat="49.39697" lon="0.19424">
        <ele>109.1</ele>
        <time>2015-06-09T09:17:24Z</time>
      </trkpt>
      <trkpt lat="49.39704" lon="0.19425">
        <ele>109.3</ele>
        <time>2015-06-09T09:17:24Z</time>
      </trkpt>
      <trkpt lat="49.39713" lon="0.19425">
        <ele>109.7</ele>
        <time>2015-06-09T09:17:24Z</time>
      </trkpt>
      <trkpt lat="49.39722" lon="0.19428">
        <ele>110</ele>
        <time>2015-06-09T09:17:24Z</time>
      </trkpt>
      <trkpt lat="49.39729" lon="0.19431">
        <ele>110.1</ele>
        <time>2015-06-09T09:17:24Z</time>
      </trkpt>
      <trkpt lat="49.39737" lon="0.1943">
        <ele>110.3</ele>
        <time>2015-06-09T09:17:24Z</time>
      </trkpt>
      <trkpt lat="49.39744" lon="0.19429">
        <ele>110.4</ele>
        <time>2015-06-09T09:17:24Z</time>
      </trkpt>
      <trkpt lat="49.39753" lon="0.19423">
        <ele>110.8</ele>
        <time>2015-06-09T09:17:24Z</time>
      </trkpt>
      <trkpt lat="49.3976" lon="0.19422">
        <ele>110.9</ele>
        <time>2015-06-09T09:17:24Z</time>
      </trkpt>
      <trkpt lat="49.39768" lon="0.19422">
        <ele>110.9</ele>
        <time>2015-06-09T09:17:24Z</time>
      </trkpt>
      <trkpt lat="49.39776" lon="0.19423">
        <ele>111</ele>
        <time>2015-06-09T09:17:24Z</time>
      </trkpt>
      <trkpt lat="49.39783" lon="0.19422">
        <ele>111.1</ele>
        <time>2015-06-09T09:17:24Z</time>
      </trkpt>
      <trkpt lat="49.3979" lon="0.19418">
        <ele>111.4</ele>
        <time>2015-06-09T09:17:24Z</time>
      </trkpt>
      <trkpt lat="49.39797" lon="0.19417">
        <ele>111.7</ele>
        <time>2015-06-09T09:17:24Z</time>
      </trkpt>
      <trkpt lat="49.39806" lon="0.19415">
        <ele>112</ele>
        <time>2015-06-09T09:17:24Z</time>
      </trkpt>
      <trkpt lat="49.39814" lon="0.19415">
        <ele>112</ele>
        <time>2015-06-09T09:17:24Z</time>
      </trkpt>
      <trkpt lat="49.39824" lon="0.19411">
        <ele>112.1</ele>
        <time>2015-06-09T09:17:24Z</time>
      </trkpt>
      <trkpt lat="49.39832" lon="0.19417">
        <ele>112</ele>
        <time>2015-06-09T09:17:24Z</time>
      </trkpt>
      <trkpt lat="49.39837" lon="0.19421">
        <ele>112.1</ele>
        <time>2015-06-09T09:17:24Z</time>
      </trkpt>
      <trkpt lat="49.39844" lon="0.19425">
        <ele>112.3</ele>
        <time>2015-06-09T09:17:24Z</time>
      </trkpt>
      <trkpt lat="49.39854" lon="0.19427">
        <ele>112.5</ele>
        <time>2015-06-09T09:17:24Z</time>
      </trkpt>
      <trkpt lat="49.39861" lon="0.1943">
        <ele>112.5</ele>
        <time>2015-06-09T09:17:24Z</time>
      </trkpt>
      <trkpt lat="49.39868" lon="0.19433">
        <ele>112.6</ele>
        <time>2015-06-09T09:17:24Z</time>
      </trkpt>
      <trkpt lat="49.39874" lon="0.19435">
        <ele>112.6</ele>
        <time>2015-06-09T09:17:24Z</time>
      </trkpt>
      <trkpt lat="49.3988" lon="0.19437">
        <ele>112.8</ele>
        <time>2015-06-09T09:17:24Z</time>
      </trkpt>
      <trkpt lat="49.39886" lon="0.19437">
        <ele>112.9</ele>
        <time>2015-06-09T09:17:24Z</time>
      </trkpt>
      <trkpt lat="49.39891" lon="0.19443">
        <ele>113</ele>
        <time>2015-06-09T09:17:24Z</time>
      </trkpt>
      <trkpt lat="49.39896" lon="0.19453">
        <ele>113</ele>
        <time>2015-06-09T09:17:24Z</time>
      </trkpt>
      <trkpt lat="49.399" lon="0.19463">
        <ele>113</ele>
        <time>2015-06-09T09:17:24Z</time>
      </trkpt>
      <trkpt lat="49.39902" lon="0.19469">
        <ele>113</ele>
        <time>2015-06-09T09:17:24Z</time>
      </trkpt>
      <trkpt lat="49.39903" lon="0.19475">
        <ele>113</ele>
        <time>2015-06-09T09:17:24Z</time>
      </trkpt>
      <trkpt lat="49.39906" lon="0.19486">
        <ele>113</ele>
        <time>2015-06-09T09:17:24Z</time>
      </trkpt>
      <trkpt lat="49.39909" lon="0.19498">
        <ele>113</ele>
        <time>2015-06-09T09:17:24Z</time>
      </trkpt>
      <trkpt lat="49.39911" lon="0.19509">
        <ele>113</ele>
        <time>2015-06-09T09:17:24Z</time>
      </trkpt>
      <trkpt lat="49.39913" lon="0.1952">
        <ele>113</ele>
        <time>2015-06-09T09:17:24Z</time>
      </trkpt>
      <trkpt lat="49.39915" lon="0.19531">
        <ele>113</ele>
        <time>2015-06-09T09:17:24Z</time>
      </trkpt>
      <trkpt lat="49.39918" lon="0.19542">
        <ele>113</ele>
        <time>2015-06-09T09:17:24Z</time>
      </trkpt>
      <trkpt lat="49.39921" lon="0.19553">
        <ele>113</ele>
        <time>2015-06-09T09:17:24Z</time>
      </trkpt>
      <trkpt lat="49.39923" lon="0.19563">
        <ele>113</ele>
        <time>2015-06-09T09:17:24Z</time>
      </trkpt>
      <trkpt lat="49.39925" lon="0.19573">
        <ele>113</ele>
        <time>2015-06-09T09:17:24Z</time>
      </trkpt>
      <trkpt lat="49.39928" lon="0.19584">
        <ele>113</ele>
        <time>2015-06-09T09:17:24Z</time>
      </trkpt>
      <trkpt lat="49.39931" lon="0.19596">
        <ele>113</ele>
        <time>2015-06-09T09:17:24Z</time>
      </trkpt>
      <trkpt lat="49.39934" lon="0.19606">
        <ele>113</ele>
        <time>2015-06-09T09:17:24Z</time>
      </trkpt>
      <trkpt lat="49.39937" lon="0.19617">
        <ele>112.8</ele>
        <time>2015-06-09T09:17:24Z</time>
      </trkpt>
      <trkpt lat="49.39941" lon="0.19627">
        <ele>112.5</ele>
        <time>2015-06-09T09:17:24Z</time>
      </trkpt>
      <trkpt lat="49.39944" lon="0.19638">
        <ele>112.1</ele>
        <time>2015-06-09T09:17:24Z</time>
      </trkpt>
      <trkpt lat="49.39946" lon="0.19649">
        <ele>112.4</ele>
        <time>2015-06-09T09:17:24Z</time>
      </trkpt>
      <trkpt lat="49.39948" lon="0.19659">
        <ele>112.8</ele>
        <time>2015-06-09T09:17:24Z</time>
      </trkpt>
      <trkpt lat="49.39951" lon="0.19669">
        <ele>113</ele>
        <time>2015-06-09T09:17:24Z</time>
      </trkpt>
      <trkpt lat="49.39953" lon="0.19679">
        <ele>113</ele>
        <time>2015-06-09T09:17:24Z</time>
      </trkpt>
      <trkpt lat="49.39956" lon="0.19691">
        <ele>113</ele>
        <time>2015-06-09T09:17:24Z</time>
      </trkpt>
      <trkpt lat="49.39958" lon="0.19701">
        <ele>113</ele>
        <time>2015-06-09T09:17:24Z</time>
      </trkpt>
      <trkpt lat="49.39962" lon="0.19712">
        <ele>113</ele>
        <time>2015-06-09T09:17:24Z</time>
      </trkpt>
      <trkpt lat="49.39965" lon="0.19721">
        <ele>113</ele>
        <time>2015-06-09T09:17:24Z</time>
      </trkpt>
      <trkpt lat="49.39967" lon="0.19723">
        <ele>113</ele>
        <time>2015-06-09T09:17:24Z</time>
      </trkpt>
      <trkpt lat="49.39979" lon="0.1972">
        <ele>113.2</ele>
        <time>2015-06-09T09:17:24Z</time>
      </trkpt>
      <trkpt lat="49.39986" lon="0.19715">
        <ele>113.4</ele>
        <time>2015-06-09T09:17:24Z</time>
      </trkpt>
      <trkpt lat="49.39994" lon="0.19711">
        <ele>113.5</ele>
        <time>2015-06-09T09:17:24Z</time>
      </trkpt>
      <trkpt lat="49.40001" lon="0.19707">
        <ele>113.4</ele>
        <time>2015-06-09T09:17:24Z</time>
      </trkpt>
      <trkpt lat="49.40004" lon="0.19705">
        <ele>113.4</ele>
        <time>2015-06-09T09:17:24Z</time>
      </trkpt>
      <trkpt lat="49.40013" lon="0.19693">
        <ele>113</ele>
        <time>2015-06-09T09:17:24Z</time>
      </trkpt>
      <trkpt lat="49.40021" lon="0.1969">
        <ele>113.1</ele>
        <time>2015-06-09T09:17:24Z</time>
      </trkpt>
      <trkpt lat="49.40028" lon="0.19689">
        <ele>113.2</ele>
        <time>2015-06-09T09:17:24Z</time>
      </trkpt>
      <trkpt lat="49.40036" lon="0.19685">
        <ele>113.5</ele>
        <time>2015-06-09T09:17:24Z</time>
      </trkpt>
      <trkpt lat="49.40043" lon="0.19683">
        <ele>113.7</ele>
        <time>2015-06-09T09:17:24Z</time>
      </trkpt>
      <trkpt lat="49.40051" lon="0.19674">
        <ele>114</ele>
        <time>2015-06-09T09:17:24Z</time>
      </trkpt>
      <trkpt lat="49.40061" lon="0.1966">
        <ele>114</ele>
        <time>2015-06-09T09:17:24Z</time>
      </trkpt>
      <trkpt lat="49.40069" lon="0.19654">
        <ele>114</ele>
        <time>2015-06-09T09:17:24Z</time>
      </trkpt>
      <trkpt lat="49.40076" lon="0.19651">
        <ele>114</ele>
        <time>2015-06-09T09:17:24Z</time>
      </trkpt>
      <trkpt lat="49.40085" lon="0.19651">
        <ele>114</ele>
        <time>2015-06-09T09:17:24Z</time>
      </trkpt>
      <trkpt lat="49.40093" lon="0.19646">
        <ele>114</ele>
        <time>2015-06-09T09:17:24Z</time>
      </trkpt>
      <trkpt lat="49.40103" lon="0.19639">
        <ele>114</ele>
        <time>2015-06-09T09:17:24Z</time>
      </trkpt>
      <trkpt lat="49.40109" lon="0.19634">
        <ele>114.2</ele>
        <time>2015-06-09T09:17:24Z</time>
      </trkpt>
      <trkpt lat="49.40116" lon="0.19628">
        <ele>114.4</ele>
        <time>2015-06-09T09:17:24Z</time>
      </trkpt>
      <trkpt lat="49.40121" lon="0.19625">
        <ele>114.5</ele>
        <time>2015-06-09T09:17:24Z</time>
      </trkpt>
      <trkpt lat="49.40129" lon="0.1962">
        <ele>114.7</ele>
        <time>2015-06-09T09:17:24Z</time>
      </trkpt>
      <trkpt lat="49.40137" lon="0.19618">
        <ele>114.8</ele>
        <time>2015-06-09T09:17:24Z</time>
      </trkpt>
      <trkpt lat="49.40145" lon="0.19615">
        <ele>114.7</ele>
        <time>2015-06-09T09:17:24Z</time>
      </trkpt>
      <trkpt lat="49.40153" lon="0.19614">
        <ele>114.5</ele>
        <time>2015-06-09T09:17:24Z</time>
      </trkpt>
      <trkpt lat="49.40159" lon="0.1961">
        <ele>114.3</ele>
        <time>2015-06-09T09:17:24Z</time>
      </trkpt>
      <trkpt lat="49.40167" lon="0.19605">
        <ele>114</ele>
        <time>2015-06-09T09:17:24Z</time>
      </trkpt>
      <trkpt lat="49.40176" lon="0.196">
        <ele>114.3</ele>
        <time>2015-06-09T09:17:24Z</time>
      </trkpt>
      <trkpt lat="49.40183" lon="0.19594">
        <ele>114.6</ele>
        <time>2015-06-09T09:17:24Z</time>
      </trkpt>
      <trkpt lat="49.40189" lon="0.19589">
        <ele>114.8</ele>
        <time>2015-06-09T09:17:24Z</time>
      </trkpt>
      <trkpt lat="49.40196" lon="0.19584">
        <ele>115</ele>
        <time>2015-06-09T09:17:24Z</time>
      </trkpt>
      <trkpt lat="49.40202" lon="0.19576">
        <ele>115</ele>
        <time>2015-06-09T09:17:24Z</time>
      </trkpt>
      <trkpt lat="49.40208" lon="0.1957">
        <ele>115</ele>
        <time>2015-06-09T09:17:24Z</time>
      </trkpt>
      <trkpt lat="49.40215" lon="0.19564">
        <ele>115</ele>
        <time>2015-06-09T09:17:24Z</time>
      </trkpt>
      <trkpt lat="49.40223" lon="0.19558">
        <ele>115</ele>
        <time>2015-06-09T09:17:24Z</time>
      </trkpt>
      <trkpt lat="49.40231" lon="0.19553">
        <ele>115</ele>
        <time>2015-06-09T09:17:24Z</time>
      </trkpt>
      <trkpt lat="49.40239" lon="0.19548">
        <ele>115</ele>
        <time>2015-06-09T09:17:24Z</time>
      </trkpt>
      <trkpt lat="49.40246" lon="0.19544">
        <ele>115</ele>
        <time>2015-06-09T09:17:24Z</time>
      </trkpt>
      <trkpt lat="49.40253" lon="0.1954">
        <ele>115</ele>
        <time>2015-06-09T09:17:24Z</time>
      </trkpt>
      <trkpt lat="49.40262" lon="0.19537">
        <ele>115</ele>
        <time>2015-06-09T09:17:24Z</time>
      </trkpt>
      <trkpt lat="49.40269" lon="0.19532">
        <ele>115</ele>
        <time>2015-06-09T09:17:24Z</time>
      </trkpt>
      <trkpt lat="49.40276" lon="0.19528">
        <ele>115</ele>
        <time>2015-06-09T09:17:24Z</time>
      </trkpt>
      <trkpt lat="49.40282" lon="0.19524">
        <ele>115</ele>
        <time>2015-06-09T09:17:24Z</time>
      </trkpt>
      <trkpt lat="49.40289" lon="0.19522">
        <ele>115</ele>
        <time>2015-06-09T09:17:24Z</time>
      </trkpt>
      <trkpt lat="49.40297" lon="0.19518">
        <ele>115</ele>
        <time>2015-06-09T09:17:24Z</time>
      </trkpt>
      <trkpt lat="49.40303" lon="0.19512">
        <ele>115</ele>
        <time>2015-06-09T09:17:24Z</time>
      </trkpt>
      <trkpt lat="49.40309" lon="0.19508">
        <ele>115</ele>
        <time>2015-06-09T09:17:24Z</time>
      </trkpt>
      <trkpt lat="49.40317" lon="0.19501">
        <ele>115</ele>
        <time>2015-06-09T09:17:24Z</time>
      </trkpt>
      <trkpt lat="49.40322" lon="0.19499">
        <ele>115</ele>
        <time>2015-06-09T09:17:24Z</time>
      </trkpt>
      <trkpt lat="49.4033" lon="0.19492">
        <ele>115</ele>
        <time>2015-06-09T09:17:24Z</time>
      </trkpt>
      <trkpt lat="49.40339" lon="0.19484">
        <ele>114.9</ele>
        <time>2015-06-09T09:17:24Z</time>
      </trkpt>
      <trkpt lat="49.40346" lon="0.19482">
        <ele>114.7</ele>
        <time>2015-06-09T09:17:24Z</time>
      </trkpt>
      <trkpt lat="49.40351" lon="0.19478">
        <ele>114.5</ele>
        <time>2015-06-09T09:17:24Z</time>
      </trkpt>
      <trkpt lat="49.40355" lon="0.19477">
        <ele>114.4</ele>
        <time>2015-06-09T09:17:24Z</time>
      </trkpt>
      <trkpt lat="49.40363" lon="0.19476">
        <ele>114.1</ele>
        <time>2015-06-09T09:17:24Z</time>
      </trkpt>
      <trkpt lat="49.40373" lon="0.19473">
        <ele>114</ele>
        <time>2015-06-09T09:17:24Z</time>
      </trkpt>
      <trkpt lat="49.4038" lon="0.19471">
        <ele>114</ele>
        <time>2015-06-09T09:17:24Z</time>
      </trkpt>
      <trkpt lat="49.40386" lon="0.19471">
        <ele>114</ele>
        <time>2015-06-09T09:17:24Z</time>
      </trkpt>
      <trkpt lat="49.40393" lon="0.1947">
        <ele>114</ele>
        <time>2015-06-09T09:17:24Z</time>
      </trkpt>
      <trkpt lat="49.40404" lon="0.19467">
        <ele>114</ele>
        <time>2015-06-09T09:17:24Z</time>
      </trkpt>
      <trkpt lat="49.40416" lon="0.19465">
        <ele>114</ele>
        <time>2015-06-09T09:17:24Z</time>
      </trkpt>
      <trkpt lat="49.40422" lon="0.1946">
        <ele>114</ele>
        <time>2015-06-09T09:17:24Z</time>
      </trkpt>
      <trkpt lat="49.40427" lon="0.19458">
        <ele>114</ele>
        <time>2015-06-09T09:17:24Z</time>
      </trkpt>
      <trkpt lat="49.40433" lon="0.19454">
        <ele>114</ele>
        <time>2015-06-09T09:17:24Z</time>
      </trkpt>
      <trkpt lat="49.4044" lon="0.19447">
        <ele>114</ele>
        <time>2015-06-09T09:17:24Z</time>
      </trkpt>
      <trkpt lat="49.40447" lon="0.1944">
        <ele>114</ele>
        <time>2015-06-09T09:17:24Z</time>
      </trkpt>
      <trkpt lat="49.40464" lon="0.19435">
        <ele>114</ele>
        <time>2015-06-09T09:17:24Z</time>
      </trkpt>
      <trkpt lat="49.40469" lon="0.19431">
        <ele>114</ele>
        <time>2015-06-09T09:17:24Z</time>
      </trkpt>
      <trkpt lat="49.40478" lon="0.19424">
        <ele>113.9</ele>
        <time>2015-06-09T09:17:24Z</time>
      </trkpt>
      <trkpt lat="49.40484" lon="0.19419">
        <ele>113.6</ele>
        <time>2015-06-09T09:17:24Z</time>
      </trkpt>
      <trkpt lat="49.40493" lon="0.19415">
        <ele>113.3</ele>
        <time>2015-06-09T09:17:24Z</time>
      </trkpt>
      <trkpt lat="49.405" lon="0.19409">
        <ele>113.3</ele>
        <time>2015-06-09T09:17:24Z</time>
      </trkpt>
      <trkpt lat="49.40509" lon="0.19404">
        <ele>113.5</ele>
        <time>2015-06-09T09:17:24Z</time>
      </trkpt>
      <trkpt lat="49.40516" lon="0.19398">
        <ele>113.5</ele>
        <time>2015-06-09T09:17:24Z</time>
      </trkpt>
      <trkpt lat="49.40522" lon="0.19394">
        <ele>113.3</ele>
        <time>2015-06-09T09:17:24Z</time>
      </trkpt>
      <trkpt lat="49.40531" lon="0.19388">
        <ele>113</ele>
        <time>2015-06-09T09:17:24Z</time>
      </trkpt>
      <trkpt lat="49.40537" lon="0.19385">
        <ele>113.2</ele>
        <time>2015-06-09T09:17:24Z</time>
      </trkpt>
      <trkpt lat="49.40545" lon="0.19381">
        <ele>113.3</ele>
        <time>2015-06-09T09:17:24Z</time>
      </trkpt>
      <trkpt lat="49.40553" lon="0.19375">
        <ele>113.5</ele>
        <time>2015-06-09T09:17:24Z</time>
      </trkpt>
      <trkpt lat="49.40561" lon="0.19371">
        <ele>113.5</ele>
        <time>2015-06-09T09:17:24Z</time>
      </trkpt>
      <trkpt lat="49.40569" lon="0.19367">
        <ele>113.4</ele>
        <time>2015-06-09T09:17:24Z</time>
      </trkpt>
      <trkpt lat="49.40576" lon="0.19361">
        <ele>113.3</ele>
        <time>2015-06-09T09:17:24Z</time>
      </trkpt>
      <trkpt lat="49.40582" lon="0.19356">
        <ele>113</ele>
        <time>2015-06-09T09:17:24Z</time>
      </trkpt>
      <trkpt lat="49.40592" lon="0.19355">
        <ele>113</ele>
        <time>2015-06-09T09:17:24Z</time>
      </trkpt>
      <trkpt lat="49.40598" lon="0.1936">
        <ele>113</ele>
        <time>2015-06-09T09:17:24Z</time>
      </trkpt>
      <trkpt lat="49.40606" lon="0.19368">
        <ele>112.8</ele>
        <time>2015-06-09T09:17:24Z</time>
      </trkpt>
      <trkpt lat="49.40612" lon="0.19377">
        <ele>112.4</ele>
        <time>2015-06-09T09:17:24Z</time>
      </trkpt>
      <trkpt lat="49.40619" lon="0.19389">
        <ele>112</ele>
        <time>2015-06-09T09:17:24Z</time>
      </trkpt>
      <trkpt lat="49.40622" lon="0.19399">
        <ele>112.2</ele>
        <time>2015-06-09T09:17:24Z</time>
      </trkpt>
      <trkpt lat="49.40626" lon="0.19408">
        <ele>112.3</ele>
        <time>2015-06-09T09:17:24Z</time>
      </trkpt>
      <trkpt lat="49.40629" lon="0.19411">
        <ele>112.3</ele>
        <time>2015-06-09T09:17:24Z</time>
      </trkpt>
      <trkpt lat="49.40637" lon="0.19409">
        <ele>112</ele>
        <time>2015-06-09T09:17:24Z</time>
      </trkpt>
      <trkpt lat="49.40644" lon="0.19407">
        <ele>111.8</ele>
        <time>2015-06-09T09:17:24Z</time>
      </trkpt>
      <trkpt lat="49.40653" lon="0.19408">
        <ele>111.5</ele>
        <time>2015-06-09T09:17:24Z</time>
      </trkpt>
      <trkpt lat="49.40663" lon="0.19408">
        <ele>111.1</ele>
        <time>2015-06-09T09:17:24Z</time>
      </trkpt>
      <trkpt lat="49.40671" lon="0.19408">
        <ele>111</ele>
        <time>2015-06-09T09:17:24Z</time>
      </trkpt>
      <trkpt lat="49.40678" lon="0.19409">
        <ele>111</ele>
        <time>2015-06-09T09:17:24Z</time>
      </trkpt>
      <trkpt lat="49.40686" lon="0.19408">
        <ele>111</ele>
        <time>2015-06-09T09:17:24Z</time>
      </trkpt>
      <trkpt lat="49.40689" lon="0.19397">
        <ele>111</ele>
        <time>2015-06-09T09:17:24Z</time>
      </trkpt>
    </trkseg>
  </trk>
  <trk>
    <name><![CDATA[192]]></name>
    <trkseg>
      <trkpt lat="49.4114" lon="0.16915">
        <ele>4.9</ele>
        <time>2015-06-09T09:17:24Z</time>
      </trkpt>
      <trkpt lat="49.4114" lon="0.16915">
        <ele>4.9</ele>
        <time>2015-06-09T09:17:24Z</time>
      </trkpt>
    </trkseg>
  </trk>
  <trk>
    <name><![CDATA[192]]></name>
    <trkseg>
      <trkpt lat="49.4114" lon="0.16915">
        <ele>4.9</ele>
        <time>2015-06-09T09:17:24Z</time>
      </trkpt>
      <trkpt lat="49.4114" lon="0.16915">
        <ele>4.9</ele>
        <time>2015-06-09T09:17:24Z</time>
      </trkpt>
    </trkseg>
  </trk>
  <trk>
    <name><![CDATA[192]]></name>
    <trkseg>
      <trkpt lat="49.40599" lon="0.17764">
        <ele>35.3</ele>
        <time>2015-06-09T09:17:24Z</time>
      </trkpt>
      <trkpt lat="49.40599" lon="0.17764">
        <ele>35.3</ele>
        <time>2015-06-09T09:17:24Z</time>
      </trkpt>
    </trkseg>
  </trk>
  <trk>
    <name><![CDATA[192]]></name>
    <trkseg>
      <trkpt lat="49.40549" lon="0.17877">
        <ele>46.7</ele>
        <time>2015-06-09T09:17:24Z</time>
      </trkpt>
      <trkpt lat="49.40549" lon="0.17877">
        <ele>46.7</ele>
        <time>2015-06-09T09:17:24Z</time>
      </trkpt>
    </trkseg>
  </trk>
  <trk>
    <name><![CDATA[192]]></name>
    <trkseg>
      <trkpt lat="49.40476" lon="0.18017">
        <ele>62.4</ele>
        <time>2015-06-09T09:17:24Z</time>
      </trkpt>
      <trkpt lat="49.40476" lon="0.18017">
        <ele>62.4</ele>
        <time>2015-06-09T09:17:24Z</time>
      </trkpt>
    </trkseg>
  </trk>
  <trk>
    <name><![CDATA[192]]></name>
    <trkseg>
      <trkpt lat="49.40476" lon="0.18018">
        <ele>62.6</ele>
        <time>2015-06-09T09:17:24Z</time>
      </trkpt>
      <trkpt lat="49.40476" lon="0.18018">
        <ele>62.6</ele>
        <time>2015-06-09T09:17:24Z</time>
      </trkpt>
    </trkseg>
  </trk>
  <trk>
    <name><![CDATA[192]]></name>
    <trkseg>
      <trkpt lat="49.41359" lon="0.18486">
        <ele>15.5</ele>
        <time>2015-06-09T09:17:24Z</time>
      </trkpt>
      <trkpt lat="49.41359" lon="0.18486">
        <ele>15.5</ele>
        <time>2015-06-09T09:17:24Z</time>
      </trkpt>
    </trkseg>
  </trk>
  <trk>
    <name><![CDATA[192]]></name>
    <trkseg>
      <trkpt lat="49.41216" lon="0.18857">
        <ele>39.9</ele>
        <time>2015-06-09T09:17:24Z</time>
      </trkpt>
      <trkpt lat="49.41216" lon="0.18857">
        <ele>39.9</ele>
        <time>2015-06-09T09:17:24Z</time>
      </trkpt>
    </trkseg>
  </trk>
  <trk>
    <name><![CDATA[192]]></name>
    <trkseg>
      <trkpt lat="49.41197" lon="0.18891">
        <ele>42.9</ele>
        <time>2015-06-09T09:17:24Z</time>
      </trkpt>
      <trkpt lat="49.41197" lon="0.18891">
        <ele>42.9</ele>
        <time>2015-06-09T09:17:24Z</time>
      </trkpt>
    </trkseg>
  </trk>
  <trk>
    <name><![CDATA[192]]></name>
    <trkseg>
      <trkpt lat="49.39637" lon="0.1937">
        <ele>107.2</ele>
        <time>2015-06-09T09:17:24Z</time>
      </trkpt>
      <trkpt lat="49.39637" lon="0.1937">
        <ele>107.2</ele>
        <time>2015-06-09T09:17:24Z</time>
      </trkpt>
    </trkseg>
  </trk>
  <trk>
    <name><![CDATA[192]]></name>
    <trkseg>
      <trkpt lat="49.40689" lon="0.19397">
        <ele>111</ele>
        <time>2015-06-09T09:17:24Z</time>
      </trkpt>
      <trkpt lat="49.40704" lon="0.19405">
        <ele>111</ele>
        <time>2015-06-09T09:17:24Z</time>
      </trkpt>
      <trkpt lat="49.40709" lon="0.19408">
        <ele>111</ele>
        <time>2015-06-09T09:17:24Z</time>
      </trkpt>
      <trkpt lat="49.40715" lon="0.19402">
        <ele>111</ele>
        <time>2015-06-09T09:17:24Z</time>
      </trkpt>
      <trkpt lat="49.40721" lon="0.19396">
        <ele>111</ele>
        <time>2015-06-09T09:17:24Z</time>
      </trkpt>
      <trkpt lat="49.40728" lon="0.19393">
        <ele>111</ele>
        <time>2015-06-09T09:17:24Z</time>
      </trkpt>
      <trkpt lat="49.40734" lon="0.19388">
        <ele>111</ele>
        <time>2015-06-09T09:17:24Z</time>
      </trkpt>
      <trkpt lat="49.40739" lon="0.19378">
        <ele>111</ele>
        <time>2015-06-09T09:17:24Z</time>
      </trkpt>
      <trkpt lat="49.40747" lon="0.19373">
        <ele>111</ele>
        <time>2015-06-09T09:17:24Z</time>
      </trkpt>
      <trkpt lat="49.40754" lon="0.19369">
        <ele>111</ele>
        <time>2015-06-09T09:17:24Z</time>
      </trkpt>
      <trkpt lat="49.40762" lon="0.19363">
        <ele>111</ele>
        <time>2015-06-09T09:17:24Z</time>
      </trkpt>
      <trkpt lat="49.40766" lon="0.19359">
        <ele>111</ele>
        <time>2015-06-09T09:17:24Z</time>
      </trkpt>
      <trkpt lat="49.40772" lon="0.19351">
        <ele>111</ele>
        <time>2015-06-09T09:17:24Z</time>
      </trkpt>
      <trkpt lat="49.40776" lon="0.19349">
        <ele>111</ele>
        <time>2015-06-09T09:17:24Z</time>
      </trkpt>
      <trkpt lat="49.40782" lon="0.19352">
        <ele>111</ele>
        <time>2015-06-09T09:17:24Z</time>
      </trkpt>
      <trkpt lat="49.40788" lon="0.1935">
        <ele>111</ele>
        <time>2015-06-09T09:17:24Z</time>
      </trkpt>
      <trkpt lat="49.40793" lon="0.19349">
        <ele>111</ele>
        <time>2015-06-09T09:17:24Z</time>
      </trkpt>
      <trkpt lat="49.40798" lon="0.19344">
        <ele>111</ele>
        <time>2015-06-09T09:17:24Z</time>
      </trkpt>
      <trkpt lat="49.40804" lon="0.19336">
        <ele>111</ele>
        <time>2015-06-09T09:17:24Z</time>
      </trkpt>
      <trkpt lat="49.40811" lon="0.19333">
        <ele>110.8</ele>
        <time>2015-06-09T09:17:24Z</time>
      </trkpt>
      <trkpt lat="49.40817" lon="0.19327">
        <ele>110.7</ele>
        <time>2015-06-09T09:17:24Z</time>
      </trkpt>
      <trkpt lat="49.40823" lon="0.19324">
        <ele>110.6</ele>
        <time>2015-06-09T09:17:24Z</time>
      </trkpt>
      <trkpt lat="49.40841" lon="0.19318">
        <ele>110.6</ele>
        <time>2015-06-09T09:17:24Z</time>
      </trkpt>
      <trkpt lat="49.40848" lon="0.1931">
        <ele>110.8</ele>
        <time>2015-06-09T09:17:24Z</time>
      </trkpt>
      <trkpt lat="49.40855" lon="0.1931">
        <ele>110.8</ele>
        <time>2015-06-09T09:17:24Z</time>
      </trkpt>
      <trkpt lat="49.40862" lon="0.19307">
        <ele>110.9</ele>
        <time>2015-06-09T09:17:24Z</time>
      </trkpt>
      <trkpt lat="49.40872" lon="0.19306">
        <ele>110.6</ele>
        <time>2015-06-09T09:17:24Z</time>
      </trkpt>
      <trkpt lat="49.40878" lon="0.19303">
        <ele>110.4</ele>
        <time>2015-06-09T09:17:24Z</time>
      </trkpt>
      <trkpt lat="49.40885" lon="0.193">
        <ele>110.1</ele>
        <time>2015-06-09T09:17:24Z</time>
      </trkpt>
      <trkpt lat="49.40894" lon="0.193">
        <ele>110</ele>
        <time>2015-06-09T09:17:24Z</time>
      </trkpt>
      <trkpt lat="49.40901" lon="0.19301">
        <ele>110</ele>
        <time>2015-06-09T09:17:24Z</time>
      </trkpt>
      <trkpt lat="49.40905" lon="0.19302">
        <ele>110</ele>
        <time>2015-06-09T09:17:24Z</time>
      </trkpt>
      <trkpt lat="49.40907" lon="0.19305">
        <ele>110</ele>
        <time>2015-06-09T09:17:24Z</time>
      </trkpt>
      <trkpt lat="49.40912" lon="0.19306">
        <ele>110</ele>
        <time>2015-06-09T09:17:24Z</time>
      </trkpt>
      <trkpt lat="49.40916" lon="0.193">
        <ele>110</ele>
        <time>2015-06-09T09:17:24Z</time>
      </trkpt>
      <trkpt lat="49.40923" lon="0.19289">
        <ele>109.9</ele>
        <time>2015-06-09T09:17:24Z</time>
      </trkpt>
      <trkpt lat="49.40929" lon="0.19282">
        <ele>109.9</ele>
        <time>2015-06-09T09:17:24Z</time>
      </trkpt>
      <trkpt lat="49.40934" lon="0.19274">
        <ele>110</ele>
        <time>2015-06-09T09:17:24Z</time>
      </trkpt>
      <trkpt lat="49.40939" lon="0.19266">
        <ele>110</ele>
        <time>2015-06-09T09:17:24Z</time>
      </trkpt>
      <trkpt lat="49.40948" lon="0.19262">
        <ele>109.9</ele>
        <time>2015-06-09T09:17:24Z</time>
      </trkpt>
      <trkpt lat="49.40954" lon="0.19255">
        <ele>109.7</ele>
        <time>2015-06-09T09:17:24Z</time>
      </trkpt>
      <trkpt lat="49.40956" lon="0.19251">
        <ele>109.6</ele>
        <time>2015-06-09T09:17:24Z</time>
      </trkpt>
      <trkpt lat="49.40955" lon="0.19249">
        <ele>109.6</ele>
        <time>2015-06-09T09:17:24Z</time>
      </trkpt>
      <trkpt lat="49.40956" lon="0.19241">
        <ele>109.3</ele>
        <time>2015-06-09T09:17:24Z</time>
      </trkpt>
      <trkpt lat="49.4096" lon="0.19235">
        <ele>108.9</ele>
        <time>2015-06-09T09:17:24Z</time>
      </trkpt>
      <trkpt lat="49.40969" lon="0.19226">
        <ele>108.2</ele>
        <time>2015-06-09T09:17:24Z</time>
      </trkpt>
      <trkpt lat="49.40979" lon="0.19226">
        <ele>108.1</ele>
        <time>2015-06-09T09:17:24Z</time>
      </trkpt>
      <trkpt lat="49.40985" lon="0.19224">
        <ele>108</ele>
        <time>2015-06-09T09:17:24Z</time>
      </trkpt>
      <trkpt lat="49.40992" lon="0.1922">
        <ele>108</ele>
        <time>2015-06-09T09:17:24Z</time>
      </trkpt>
      <trkpt lat="49.41" lon="0.19217">
        <ele>108</ele>
        <time>2015-06-09T09:17:24Z</time>
      </trkpt>
      <trkpt lat="49.41005" lon="0.19212">
        <ele>107.8</ele>
        <time>2015-06-09T09:17:24Z</time>
      </trkpt>
      <trkpt lat="49.41009" lon="0.19205">
        <ele>107.7</ele>
        <time>2015-06-09T09:17:24Z</time>
      </trkpt>
      <trkpt lat="49.41016" lon="0.19199">
        <ele>107.4</ele>
        <time>2015-06-09T09:17:24Z</time>
      </trkpt>
      <trkpt lat="49.4102" lon="0.19189">
        <ele>107.3</ele>
        <time>2015-06-09T09:17:24Z</time>
      </trkpt>
      <trkpt lat="49.41027" lon="0.19185">
        <ele>107</ele>
        <time>2015-06-09T09:17:24Z</time>
      </trkpt>
      <trkpt lat="49.41038" lon="0.19179">
        <ele>106.8</ele>
        <time>2015-06-09T09:17:24Z</time>
      </trkpt>
      <trkpt lat="49.41044" lon="0.19175">
        <ele>106.6</ele>
        <time>2015-06-09T09:17:24Z</time>
      </trkpt>
      <trkpt lat="49.41051" lon="0.19174">
        <ele>106.4</ele>
        <time>2015-06-09T09:17:24Z</time>
      </trkpt>
      <trkpt lat="49.41056" lon="0.1917">
        <ele>106.1</ele>
        <time>2015-06-09T09:17:24Z</time>
      </trkpt>
      <trkpt lat="49.41064" lon="0.19167">
        <ele>106</ele>
        <time>2015-06-09T09:17:24Z</time>
      </trkpt>
      <trkpt lat="49.41069" lon="0.19163">
        <ele>105.9</ele>
        <time>2015-06-09T09:17:24Z</time>
      </trkpt>
      <trkpt lat="49.41076" lon="0.19164">
        <ele>105.9</ele>
        <time>2015-06-09T09:17:24Z</time>
      </trkpt>
      <trkpt lat="49.41083" lon="0.19153">
        <ele>105.5</ele>
        <time>2015-06-09T09:17:24Z</time>
      </trkpt>
      <trkpt lat="49.41087" lon="0.19147">
        <ele>105</ele>
        <time>2015-06-09T09:17:24Z</time>
      </trkpt>
      <trkpt lat="49.41092" lon="0.1915">
        <ele>104.8</ele>
        <time>2015-06-09T09:17:24Z</time>
      </trkpt>
    </trkseg>
  </trk>
  <trk>
    <name><![CDATA[192]]></name>
    <trkseg>
      <trkpt lat="49.41115" lon="0.19119">
        <ele>102.4</ele>
        <time>2015-06-09T09:17:24Z</time>
      </trkpt>
      <trkpt lat="49.41115" lon="0.19119">
        <ele>102.4</ele>
        <time>2015-06-09T09:17:24Z</time>
      </trkpt>
      <trkpt lat="49.41115" lon="0.19119">
        <ele>102.4</ele>
        <time>2015-06-09T09:17:24Z</time>
      </trkpt>
      <trkpt lat="49.41115" lon="0.19119">
        <ele>102.4</ele>
        <time>2015-06-09T09:17:24Z</time>
      </trkpt>
    </trkseg>
  </trk>
</gpx>